M I D A S
Marine Information and Data Acquisition System
Tripno 1604 of the Zeeleeuw from 2008-09-10 06:20:15 to 2008-09-10 14:14:11
Back to CruiseResearch ActivitiesStationsMapUnderway DataData graphs

EquipmentUnitsComment
TimeDGPSUTC
LatitudeDGPSDM.mWGS84
LongitudeDGPSDM.mWGS84
TemperatureSBE03/SBE38deg celciusITS90
ConductivitySBE21S/mITS90
SalinitySBE21 Practical Salinity Units
ChlorophylAChelsea fluorimeterg/lCalibrated in Aceton
Missing or incorrect values are displayed as -999
Sea surface data collected by the RV Zeeleeuw from 2008-09-10 06:21:14 to 2008-09-10 12:35:52
                                                                                    Next 1000 lines
Time Latitude Longitude Temperature Conductivity Salinity ChlorophylA
2008-09-10 06:21:24 51°13.626 2°56.048 20.1676 0.067317 0.355442 -1.209513
2008-09-10 06:21:30 51°13.627 2°56.048 20.168 0.067317 0.355448 -1.209513
2008-09-10 06:21:35 51°13.627 2°56.047 20.1687 0.067317 0.355454 -1.209513
2008-09-10 06:21:40 51°13.627 2°56.047 20.169 0.067317 0.355454 -1.209513
2008-09-10 06:21:45 51°13.627 2°56.047 20.1687 0.067317 0.35546 -1.209513
2008-09-10 06:21:50 51°13.626 2°56.047 20.1698 0.067317 0.35546 -1.209513
2008-09-10 06:21:55 51°13.626 2°56.047 20.1705 0.067317 0.355466 -1.209513
2008-09-10 06:22:00 51°13.625 2°56.047 20.1718 0.067317 0.355466 -1.209513
2008-09-10 06:22:05 51°13.625 2°56.047 20.1712 0.067317 0.355472 -1.209513
2008-09-10 06:22:10 51°13.624 2°56.047 20.1718 0.067317 0.355478 -1.209513
2008-09-10 06:22:15 51°13.624 2°56.047 20.1716 0.067317 0.355478 -1.209513
2008-09-10 06:22:20 51°13.624 2°56.047 20.1726 0.067317 0.355478 -1.209513
2008-09-10 06:22:25 51°13.624 2°56.047 20.1728 0.067317 0.355484 -1.209513
2008-09-10 06:22:30 51°13.624 2°56.047 20.1723 0.067317 0.35549 -1.209513
2008-09-10 06:22:35 51°13.624 2°56.047 20.1729 0.067317 0.355496 -1.209513
2008-09-10 06:22:40 51°13.624 2°56.047 20.1739 0.067317 0.355502 -1.209513
2008-09-10 06:22:45 51°13.624 2°56.047 20.1737 0.067317 0.355502 -1.209513
2008-09-10 06:22:50 51°13.624 2°56.047 20.1745 0.067317 0.355502 -1.209513
2008-09-10 06:22:55 51°13.624 2°56.047 20.1739 0.067317 0.355508 -1.209513
2008-09-10 06:23:00 51°13.624 2°56.047 20.1739 0.067317 0.355514 -1.209513
2008-09-10 06:23:05 51°13.624 2°56.047 20.1739 0.067317 0.35552 -1.209513
2008-09-10 06:23:10 51°13.624 2°56.047 20.1745 0.067317 0.35552 -1.209513
2008-09-10 06:23:15 51°13.625 2°56.047 20.1754 0.067317 0.355526 -1.209513
2008-09-10 06:23:20 51°13.625 2°56.047 20.1767 0.067317 0.355526 -1.209513
2008-09-10 06:23:25 51°13.625 2°56.047 20.1789 0.067317 0.355532 -1.209513
2008-09-10 06:23:30 51°13.625 2°56.047 20.1804 0.067317 0.355532 -1.209513
2008-09-10 06:23:35 51°13.625 2°56.047 20.1805 0.067317 0.355538 -1.209513
2008-09-10 06:23:40 51°13.625 2°56.047 20.1814 0.067317 0.355544 -1.209513
2008-09-10 06:23:45 51°13.625 2°56.047 20.1826 0.067317 0.35555 -1.209513
2008-09-10 06:23:50 51°13.625 2°56.047 20.1828 0.067317 0.35555 -1.209513
2008-09-10 06:23:55 51°13.625 2°56.047 20.1838 0.067317 0.35555 -1.209513
2008-09-10 06:24:00 51°13.625 2°56.047 20.1831 0.067317 0.355556 -1.209513
2008-09-10 06:24:05 51°13.625 2°56.047 20.1837 0.067317 0.355562 -1.209513
2008-09-10 06:24:10 51°13.625 2°56.047 20.1843 0.067317 0.355562 -1.209513
2008-09-10 06:24:15 51°13.625 2°56.047 20.1826 0.067317 0.355568 -1.209513
2008-09-10 06:24:20 51°13.625 2°56.047 20.1815 0.067317 0.355568 -1.209513
2008-09-10 06:24:25 51°13.625 2°56.047 20.186 0.067317 0.355574 -1.209513
2008-09-10 06:24:30 51°13.625 2°56.047 20.1906 0.067317 0.35558 -1.209513
2008-09-10 06:24:35 51°13.625 2°56.047 20.1914 0.067317 0.355586 -1.209513
2008-09-10 06:24:40 51°13.625 2°56.047 20.1925 0.067214 0.355026 -1.244337
2008-09-10 06:24:45 51°13.625 2°56.047 20.1917 0.067317 0.355592 -1.209513
2008-09-10 06:24:50 51°13.625 2°56.048 20.1919 0.067317 0.355592 -1.209513
2008-09-10 06:24:55 51°13.625 2°56.047 20.1919 0.067317 0.355592 -1.209513
2008-09-10 06:25:00 51°13.625 2°56.047 20.1924 0.067214 0.355038 -1.209513
2008-09-10 06:25:05 51°13.625 2°56.047 20.1933 0.067214 0.355044 -1.209513
2008-09-10 06:25:10 51°13.625 2°56.047 20.1938 0.067214 0.35505 -1.209513
2008-09-10 06:25:15 51°13.625 2°56.047 20.1935 0.067214 0.355056 -1.209513
2008-09-10 06:25:20 51°13.625 2°56.047 20.1945 0.067214 0.355056 -1.209513
2008-09-10 06:25:25 51°13.625 2°56.047 20.194 0.067214 0.355056 -1.209513
2008-09-10 06:25:31 51°13.625 2°56.047 20.1944 0.067214 0.355062 -1.209513
2008-09-10 06:25:35 51°13.625 2°56.047 20.1951 0.067214 0.355068 -1.209513
2008-09-10 06:25:40 51°13.625 2°56.047 20.1956 0.067214 0.355068 -1.209513
2008-09-10 06:25:45 51°13.625 2°56.047 20.1959 0.067214 0.355074 -1.209513
2008-09-10 06:25:50 51°13.625 2°56.047 20.1959 0.067214 0.355074 -1.209513
2008-09-10 06:25:55 51°13.625 2°56.047 20.1958 0.067214 0.355074 -1.209513
2008-09-10 06:26:00 51°13.625 2°56.047 20.1959 0.067214 0.355086 -1.209513
2008-09-10 06:26:05 51°13.625 2°56.047 20.1963 0.067214 0.355086 -1.209513
2008-09-10 06:26:10 51°13.625 2°56.047 20.1973 0.067214 0.355092 -1.209513
2008-09-10 06:26:15 51°13.625 2°56.047 20.1984 0.067214 0.355092 -1.209513
2008-09-10 06:26:20 51°13.625 2°56.047 20.1993 0.067214 0.355092 -1.209513
2008-09-10 06:26:25 51°13.625 2°56.047 20.1989 0.067214 0.355098 -1.209513
2008-09-10 06:26:29 51°13.625 2°56.047 20.1992 0.067214 0.355104 -1.209513
2008-09-10 06:26:34 51°13.625 2°56.047 20.1984 0.067214 0.35511 -1.209513
2008-09-10 06:26:39 51°13.625 2°56.047 20.1976 0.067214 0.355116 -1.209513
2008-09-10 06:26:44 51°13.625 2°56.047 20.1982 0.067214 0.355116 -1.209513
2008-09-10 06:26:50 51°13.625 2°56.047 20.199 0.067214 0.355116 -1.209513
2008-09-10 06:26:55 51°13.625 2°56.047 20.2011 0.067214 0.355122 -1.209513
2008-09-10 06:27:00 51°13.625 2°56.047 20.203 0.067214 0.355128 -1.209513
2008-09-10 06:27:05 51°13.625 2°56.047 20.2054 0.067214 0.355128 -1.209513
2008-09-10 06:27:10 51°13.625 2°56.047 20.207 0.067214 0.355134 -1.209513
2008-09-10 06:27:14 51°13.625 2°56.047 20.208 0.067214 0.35514 -1.209513
2008-09-10 06:27:19 51°13.625 2°56.047 20.2086 0.067214 0.35514 -1.209513
2008-09-10 06:27:24 51°13.625 2°56.046 20.2078 0.067214 0.35514 -1.209513
2008-09-10 06:27:30 51°13.624 2°56.047 20.2075 0.067214 0.355146 -1.209513
2008-09-10 06:27:35 51°13.624 2°56.047 20.2069 0.067214 0.355152 -1.209513
2008-09-10 06:27:40 51°13.624 2°56.047 20.2068 0.067214 0.355158 -1.209513
2008-09-10 06:27:45 51°13.624 2°56.047 20.2079 0.067214 0.355158 -1.209513
2008-09-10 06:27:50 51°13.624 2°56.047 20.2078 0.067214 0.355158 -1.209513
2008-09-10 06:27:54 51°13.624 2°56.047 20.2079 0.067214 0.355164 -1.209513
2008-09-10 06:27:59 51°13.624 2°56.047 20.2076 0.067214 0.355164 -1.209513
2008-09-10 06:28:04 51°13.624 2°56.047 20.2072 0.067214 0.35517 -1.209513
2008-09-10 06:28:10 51°13.624 2°56.047 20.2045 0.067214 0.355176 -1.209513
2008-09-10 06:28:15 51°13.624 2°56.047 20.2054 0.067214 0.355176 -1.209513
2008-09-10 06:28:20 51°13.624 2°56.047 20.2057 0.067214 0.355176 -1.209513
2008-09-10 06:28:25 51°13.624 2°56.047 20.207 0.067214 0.355182 -1.209513
2008-09-10 06:28:30 51°13.624 2°56.047 20.2088 0.067214 0.355188 -1.209513
2008-09-10 06:28:35 51°13.624 2°56.047 20.2096 0.067214 0.355194 -1.209513
2008-09-10 06:28:40 51°13.624 2°56.047 20.2106 0.067214 0.355194 -1.209513
2008-09-10 06:28:45 51°13.624 2°56.047 20.2114 0.067214 0.3552 -1.209513
2008-09-10 06:28:50 51°13.624 2°56.047 20.2126 0.067214 0.3552 -1.209513
2008-09-10 06:28:55 51°13.624 2°56.047 20.2125 0.067214 0.355206 -1.209513
2008-09-10 06:29:00 51°13.624 2°56.047 20.2136 0.067214 0.355212 -1.209513
2008-09-10 06:29:05 51°13.624 2°56.047 20.2147 0.067214 0.355212 -1.209513
2008-09-10 06:29:10 51°13.624 2°56.047 20.2155 0.067214 0.355218 -1.209513
2008-09-10 06:29:15 51°13.624 2°56.047 20.2161 0.067214 0.355218 -1.209513
2008-09-10 06:29:20 51°13.624 2°56.047 20.2168 0.067214 0.355218 -1.209513
2008-09-10 06:29:25 51°13.624 2°56.047 20.2173 0.067214 0.355224 -1.209513
2008-09-10 06:29:30 51°13.625 2°56.047 20.2187 0.067214 0.35523 -1.209513
2008-09-10 06:29:35 51°13.625 2°56.047 20.2187 0.067214 0.35523 -1.209513
2008-09-10 06:29:40 51°13.625 2°56.047 20.2195 0.067214 0.355235 -1.209513
2008-09-10 06:29:45 51°13.625 2°56.047 20.2186 0.067214 0.355241 -1.209513
2008-09-10 06:29:50 51°13.625 2°56.047 20.2181 0.067214 0.355241 -1.209513
2008-09-10 06:29:55 51°13.625 2°56.047 20.2184 0.067214 0.355247 -1.209513
2008-09-10 06:30:00 51°13.625 2°56.047 20.2182 0.067214 0.355253 -1.209513
2008-09-10 06:30:05 51°13.624 2°56.047 20.2186 0.067214 0.355253 -1.209513
2008-09-10 06:30:10 51°13.624 2°56.047 20.2197 0.067214 0.355259 -1.209513
2008-09-10 06:30:15 51°13.624 2°56.047 20.2208 0.067214 0.355259 -1.209513
2008-09-10 06:30:20 51°13.624 2°56.047 20.2205 0.067214 0.355259 -1.209513
2008-09-10 06:30:25 51°13.624 2°56.047 20.2203 0.067214 0.355265 -1.209513
2008-09-10 06:30:30 51°13.624 2°56.047 20.2201 0.067214 0.355271 -1.209513
2008-09-10 06:30:35 51°13.624 2°56.047 20.2196 0.067214 0.355277 -1.209513
2008-09-10 06:30:40 51°13.624 2°56.047 20.2202 0.067214 0.355277 -1.209513
2008-09-10 06:30:45 51°13.624 2°56.047 20.2206 0.067214 0.355283 -1.209513
2008-09-10 06:30:50 51°13.624 2°56.047 20.2223 0.067214 0.355283 -1.209513
2008-09-10 06:30:55 51°13.624 2°56.047 20.2242 0.067214 0.355289 -1.209513
2008-09-10 06:31:00 51°13.624 2°56.047 20.2255 0.067214 0.355289 -1.209513
2008-09-10 06:31:05 51°13.624 2°56.047 20.2268 0.067214 0.355295 -1.209513
2008-09-10 06:31:10 51°13.624 2°56.047 20.2278 0.067214 0.355301 -1.209513
2008-09-10 06:31:15 51°13.624 2°56.047 20.2279 0.067214 0.355301 -1.209513
2008-09-10 06:31:20 51°13.624 2°56.047 20.2285 0.067214 0.355301 -1.209513
2008-09-10 06:31:25 51°13.624 2°56.047 20.2295 0.067214 0.355307 -1.209513
2008-09-10 06:31:30 51°13.624 2°56.048 20.2305 0.067214 0.355313 -1.209513
2008-09-10 06:31:35 51°13.624 2°56.047 20.2306 0.067214 0.355313 -1.209513
2008-09-10 06:31:40 51°13.624 2°56.047 20.2316 0.067214 0.355319 -1.209513
2008-09-10 06:31:45 51°13.624 2°56.047 20.2318 0.067214 0.355319 -1.209513
2008-09-10 06:31:50 51°13.624 2°56.047 20.2327 0.067214 0.355319 -1.209513
2008-09-10 06:31:55 51°13.624 2°56.047 20.2335 0.067214 0.355331 -1.209513
2008-09-10 06:32:00 51°13.624 2°56.047 20.2339 0.067214 0.355331 -1.244337
2008-09-10 06:32:05 51°13.624 2°56.047 20.2343 0.067214 0.355337 -1.209513
2008-09-10 06:32:10 51°13.624 2°56.047 20.2342 0.067214 0.355343 -1.209513
2008-09-10 06:32:15 51°13.624 2°56.047 20.2339 0.067214 0.355343 -1.209513
2008-09-10 06:32:20 51°13.624 2°56.047 20.234 0.067214 0.355343 -1.209513
2008-09-10 06:32:25 51°13.624 2°56.047 20.2329 0.067214 0.355349 -1.209513
2008-09-10 06:32:30 51°13.624 2°56.047 20.2326 0.067214 0.355355 -1.209513
2008-09-10 06:32:35 51°13.624 2°56.047 20.234 0.067214 0.355355 -1.209513
2008-09-10 06:32:40 51°13.624 2°56.047 20.2353 0.067214 0.355361 -1.209513
2008-09-10 06:32:45 51°13.624 2°56.047 20.2363 0.067214 0.355361 -1.209513
2008-09-10 06:32:50 51°13.624 2°56.047 20.2377 0.067214 0.355361 -1.209513
2008-09-10 06:32:55 51°13.624 2°56.047 20.2388 0.067214 0.355367 -1.209513
2008-09-10 06:33:00 51°13.624 2°56.047 20.2399 0.067214 0.355374 -1.209513
2008-09-10 06:33:05 51°13.624 2°56.048 20.2407 0.067214 0.355374 -1.209513
2008-09-10 06:33:10 51°13.624 2°56.048 20.2418 0.067214 0.35538 -1.209513
2008-09-10 06:33:15 51°13.624 2°56.048 20.2426 0.067214 0.355386 -1.209513
2008-09-10 06:33:20 51°13.624 2°56.048 20.2419 0.067214 0.355386 -1.209513
2008-09-10 06:33:25 51°13.624 2°56.048 20.2425 0.067214 0.355392 -1.209513
2008-09-10 06:33:30 51°13.624 2°56.048 20.2439 0.067214 0.355392 -1.209513
2008-09-10 06:33:35 51°13.624 2°56.047 20.245 0.067214 0.355398 -1.209513
2008-09-10 06:33:40 51°13.624 2°56.047 20.2458 0.067214 0.355404 -1.209513
2008-09-10 06:33:45 51°13.624 2°56.047 20.2459 0.067214 0.35541 -1.209513
2008-09-10 06:33:50 51°13.624 2°56.047 20.2463 0.067214 0.35541 -1.209513
2008-09-10 06:33:55 51°13.624 2°56.047 20.2473 0.067214 0.35541 -1.209513
2008-09-10 06:34:00 51°13.624 2°56.047 20.2474 0.067214 0.355416 -1.209513
2008-09-10 06:34:05 51°13.624 2°56.047 20.248 0.067214 0.355416 -1.209513
2008-09-10 06:34:10 51°13.624 2°56.047 20.2489 0.067214 0.355422 -1.209513
2008-09-10 06:34:15 51°13.624 2°56.047 20.2496 0.067214 0.355428 -1.209513
2008-09-10 06:34:20 51°13.624 2°56.047 20.2486 0.067214 0.355428 -1.209513
2008-09-10 06:34:25 51°13.624 2°56.047 20.2491 0.067214 0.355434 -1.209513
2008-09-10 06:34:31 51°13.624 2°56.047 20.2505 0.067214 0.355434 -1.209513
2008-09-10 06:34:35 51°13.624 2°56.048 20.2511 0.067214 0.35544 -1.209513
2008-09-10 06:34:40 51°13.624 2°56.048 20.2515 0.067214 0.35544 -1.209513
2008-09-10 06:34:45 51°13.624 2°56.048 20.2527 0.067214 0.355446 -1.209513
2008-09-10 06:34:50 51°13.624 2°56.048 20.2534 0.067214 0.355446 -1.209513
2008-09-10 06:34:55 51°13.624 2°56.047 20.2548 0.067214 0.355452 -1.209513
2008-09-10 06:35:00 51°13.624 2°56.047 20.255 0.067214 0.355458 -1.209513
2008-09-10 06:35:05 51°13.624 2°56.047 20.2558 0.067214 0.355458 -1.209513
2008-09-10 06:35:10 51°13.624 2°56.047 20.2558 0.067214 0.355464 -1.209513
2008-09-10 06:35:15 51°13.624 2°56.047 20.2569 0.067214 0.35547 -1.209513
2008-09-10 06:35:20 51°13.624 2°56.047 20.2579 0.067214 0.35547 -1.209513
2008-09-10 06:35:25 51°13.624 2°56.047 20.2593 0.067214 0.35547 -1.209513
2008-09-10 06:35:30 51°13.624 2°56.047 20.261 0.067214 0.355476 -1.209513
2008-09-10 06:35:35 51°13.624 2°56.047 20.2612 0.067214 0.355482 -1.209513
2008-09-10 06:35:40 51°13.624 2°56.047 20.2625 0.067214 0.355488 -1.209513
2008-09-10 06:35:45 51°13.624 2°56.047 20.2629 0.067214 0.355488 -1.209513
2008-09-10 06:35:50 51°13.624 2°56.047 20.263 0.067214 0.355488 -1.209513
2008-09-10 06:35:55 51°13.624 2°56.047 20.2637 0.067214 0.355494 -1.209513
2008-09-10 06:36:00 51°13.624 2°56.047 20.2643 0.067214 0.3555 -1.209513
2008-09-10 06:36:05 51°13.623 2°56.047 20.2638 0.067214 0.355506 -1.209513
2008-09-10 06:36:10 51°13.623 2°56.047 20.2635 0.067214 0.355512 -1.209513
2008-09-10 06:36:15 51°13.623 2°56.047 20.2642 0.067214 0.355512 -1.209513
2008-09-10 06:36:20 51°13.623 2°56.047 20.2647 0.067214 0.355512 -1.209513
2008-09-10 06:36:25 51°13.623 2°56.047 20.2652 0.067214 0.355512 -1.209513
2008-09-10 06:36:30 51°13.623 2°56.047 20.2657 0.067214 0.355518 -1.209513
2008-09-10 06:36:35 51°13.623 2°56.047 20.2657 0.067214 0.355524 -1.209513
2008-09-10 06:36:40 51°13.623 2°56.047 20.2671 0.067214 0.35553 -1.209513
2008-09-10 06:36:45 51°13.623 2°56.047 20.2683 0.067214 0.355536 -1.209513
2008-09-10 06:36:50 51°13.623 2°56.047 20.2689 0.067214 0.355536 -1.209513
2008-09-10 06:36:55 51°13.623 2°56.047 20.27 0.067214 0.355536 -1.209513
2008-09-10 06:37:00 51°13.623 2°56.047 20.2703 0.067214 0.355542 -1.209513
2008-09-10 06:37:05 51°13.623 2°56.047 20.271 0.067214 0.355548 -1.209513
2008-09-10 06:37:10 51°13.623 2°56.047 20.2719 0.067214 0.355554 -1.209513
2008-09-10 06:37:15 51°13.623 2°56.047 20.2716 0.067214 0.355554 -1.209513
2008-09-10 06:37:20 51°13.623 2°56.047 20.2726 0.067214 0.355554 -1.209513
2008-09-10 06:37:25 51°13.623 2°56.047 20.2737 0.067214 0.35556 -1.209513
2008-09-10 06:37:30 51°13.623 2°56.047 20.2739 0.067214 0.355566 -1.209513
2008-09-10 06:37:35 51°13.623 2°56.047 20.2744 0.067214 0.355572 -1.209513
2008-09-10 06:37:40 51°13.623 2°56.047 20.2744 0.067214 0.355578 -1.209513
2008-09-10 06:37:45 51°13.623 2°56.047 20.2744 0.067214 0.355578 -1.209513
2008-09-10 06:37:50 51°13.623 2°56.047 20.2755 0.067214 0.355578 -1.209513
2008-09-10 06:37:55 51°13.623 2°56.047 20.2743 0.067214 0.355584 -1.209513
2008-09-10 06:38:00 51°13.623 2°56.047 20.2742 0.067214 0.35559 -1.209513
2008-09-10 06:38:05 51°13.623 2°56.047 20.2746 0.067214 0.35559 -1.209513
2008-09-10 06:38:10 51°13.623 2°56.047 20.2751 0.067214 0.355596 -1.209513
2008-09-10 06:38:15 51°13.623 2°56.047 20.2758 0.067214 0.355602 -1.209513
2008-09-10 06:38:20 51°13.623 2°56.047 20.2735 0.067214 0.355602 -1.209513
2008-09-10 06:38:25 51°13.623 2°56.047 20.2738 0.067214 0.355608 -1.209513
2008-09-10 06:38:30 51°13.623 2°56.047 20.2735 0.067214 0.355608 -1.209513
2008-09-10 06:38:35 51°13.623 2°56.047 20.2738 0.067214 0.355614 -1.209513
2008-09-10 06:38:40 51°13.623 2°56.047 20.2748 0.067214 0.355614 -1.209513
2008-09-10 06:38:45 51°13.623 2°56.047 20.2746 0.067214 0.35562 -1.209513
2008-09-10 06:38:50 51°13.623 2°56.047 20.2735 0.067214 0.35562 -1.209513
2008-09-10 06:38:55 51°13.623 2°56.047 20.2742 0.067214 0.355626 -1.209513
2008-09-10 06:39:00 51°13.623 2°56.047 20.2755 0.067111 0.355071 -1.209513
2008-09-10 06:39:05 51°13.623 2°56.048 20.2772 0.067111 0.355071 -1.209513
2008-09-10 06:39:10 51°13.623 2°56.048 20.2794 0.067111 0.355077 -1.209513
2008-09-10 06:39:15 51°13.623 2°56.048 20.2798 0.067111 0.355083 -1.209513
2008-09-10 06:39:20 51°13.623 2°56.048 20.2809 0.067111 0.355083 -1.209513
2008-09-10 06:39:25 51°13.623 2°56.048 20.281 0.067111 0.355089 -1.209513
2008-09-10 06:39:30 51°13.623 2°56.048 20.2812 0.067111 0.355089 -1.209513
2008-09-10 06:39:35 51°13.623 2°56.048 20.2822 0.067111 0.355095 -1.209513
2008-09-10 06:39:40 51°13.623 2°56.048 20.2834 0.067111 0.355101 -1.209513
2008-09-10 06:39:45 51°13.623 2°56.048 20.2836 0.067111 0.355101 -1.209513
2008-09-10 06:39:50 51°13.623 2°56.047 20.2838 0.067111 0.355101 -1.209513
2008-09-10 06:39:55 51°13.623 2°56.048 20.2844 0.067111 0.355107 -1.209513
2008-09-10 06:40:00 51°13.623 2°56.047 20.2841 0.067111 0.355113 -1.209513
2008-09-10 06:40:05 51°13.623 2°56.047 20.2852 0.067111 0.355119 -1.209513
2008-09-10 06:40:10 51°13.623 2°56.047 20.2858 0.067111 0.355119 -1.209513
2008-09-10 06:40:15 51°13.623 2°56.047 20.287 0.067111 0.355125 -1.209513
2008-09-10 06:40:20 51°13.623 2°56.047 20.2882 0.067111 0.355125 -1.209513
2008-09-10 06:40:25 51°13.623 2°56.047 20.2898 0.067111 0.355131 -1.209513
2008-09-10 06:40:30 51°13.623 2°56.047 20.2906 0.067111 0.355137 -1.209513
2008-09-10 06:40:35 51°13.623 2°56.047 20.2905 0.067111 0.355137 -1.209513
2008-09-10 06:40:40 51°13.623 2°56.047 20.2917 0.067111 0.355143 -1.209513
2008-09-10 06:40:45 51°13.623 2°56.047 20.2923 0.067111 0.355149 -1.209513
2008-09-10 06:40:50 51°13.623 2°56.047 20.293 0.067111 0.355149 -1.209513
2008-09-10 06:40:55 51°13.623 2°56.047 20.2941 0.067111 0.355149 -1.209513
2008-09-10 06:41:00 51°13.623 2°56.048 20.2946 0.067111 0.355155 -1.209513
2008-09-10 06:41:05 51°13.623 2°56.048 20.2957 0.067111 0.355161 -1.209513
2008-09-10 06:41:10 51°13.623 2°56.048 20.2963 0.067111 0.355167 -1.209513
2008-09-10 06:41:15 51°13.623 2°56.048 20.2972 0.067111 0.355167 -1.209513
2008-09-10 06:41:20 51°13.623 2°56.048 20.2982 0.067111 0.355167 -1.209513
2008-09-10 06:41:25 51°13.623 2°56.048 20.2987 0.067111 0.355173 -1.209513
2008-09-10 06:41:30 51°13.623 2°56.048 20.2993 0.067111 0.355179 -1.209513
2008-09-10 06:41:35 51°13.623 2°56.048 20.2988 0.067111 0.355179 -1.209513
2008-09-10 06:41:40 51°13.623 2°56.048 20.2997 0.067111 0.355185 -1.209513
2008-09-10 06:41:45 51°13.623 2°56.048 20.3006 0.067111 0.355191 -1.209513
2008-09-10 06:41:50 51°13.623 2°56.048 20.3012 0.067111 0.355191 -1.209513
2008-09-10 06:41:55 51°13.623 2°56.048 20.3016 0.067111 0.355197 -1.209513
2008-09-10 06:42:00 51°13.623 2°56.048 20.3024 0.067111 0.355197 -1.209513
2008-09-10 06:42:05 51°13.623 2°56.048 20.3015 0.067111 0.355203 -1.209513
2008-09-10 06:42:10 51°13.623 2°56.048 20.3011 0.067111 0.355209 -1.209513
2008-09-10 06:42:15 51°13.623 2°56.048 20.3013 0.067111 0.355215 -1.244337
2008-09-10 06:42:20 51°13.623 2°56.048 20.3023 0.067111 0.355215 -1.244337
2008-09-10 06:42:25 51°13.623 2°56.048 20.3033 0.067111 0.355215 -1.209513
2008-09-10 06:42:30 51°13.623 2°56.048 20.3041 0.067111 0.355221 -1.209513
2008-09-10 06:42:35 51°13.623 2°56.048 20.3042 0.067111 0.355227 -1.209513
2008-09-10 06:42:40 51°13.623 2°56.048 20.3038 0.067111 0.355233 -1.209513
2008-09-10 06:42:45 51°13.623 2°56.048 20.3043 0.067111 0.355233 -1.209513
2008-09-10 06:42:50 51°13.623 2°56.048 20.3042 0.067111 0.355233 -1.209513
2008-09-10 06:42:55 51°13.623 2°56.048 20.3037 0.067111 0.355239 -1.209513
2008-09-10 06:43:00 51°13.623 2°56.048 20.3017 0.067111 0.355239 -1.209513
2008-09-10 06:43:05 51°13.623 2°56.047 20.3034 0.067111 0.355245 -1.209513
2008-09-10 06:43:10 51°13.623 2°56.047 20.303 0.067111 0.355251 -1.209513
2008-09-10 06:43:15 51°13.623 2°56.047 20.3032 0.067111 0.355257 -1.209513
2008-09-10 06:43:20 51°13.623 2°56.047 20.302 0.067111 0.355257 -1.209513
2008-09-10 06:43:25 51°13.623 2°56.047 20.3033 0.067111 0.355263 -1.209513
2008-09-10 06:43:31 51°13.623 2°56.047 20.3046 0.067111 0.355263 -1.209513
2008-09-10 06:43:35 51°13.623 2°56.047 20.3046 0.067111 0.355269 -1.209513
2008-09-10 06:43:40 51°13.623 2°56.047 20.306 0.067111 0.355269 -1.209513
2008-09-10 06:43:45 51°13.623 2°56.047 20.3076 0.067111 0.355275 -1.209513
2008-09-10 06:43:50 51°13.623 2°56.047 20.3092 0.067111 0.355275 -1.209513
2008-09-10 06:43:55 51°13.623 2°56.047 20.3109 0.067111 0.355281 -1.209513
2008-09-10 06:44:00 51°13.623 2°56.047 20.3118 0.067111 0.355281 -1.209513
2008-09-10 06:44:05 51°13.623 2°56.047 20.3127 0.067111 0.355287 -1.209513
2008-09-10 06:44:10 51°13.623 2°56.047 20.3121 0.067111 0.355293 -1.209513
2008-09-10 06:44:15 51°13.623 2°56.047 20.3116 0.067111 0.355293 -1.209513
2008-09-10 06:44:20 51°13.623 2°56.047 20.3078 0.067111 0.355293 -1.209513
2008-09-10 06:44:25 51°13.623 2°56.047 20.2993 0.067111 0.355299 -1.209513
2008-09-10 06:44:30 51°13.623 2°56.047 20.2884 0.067111 0.355305 -1.209513
2008-09-10 06:44:35 51°13.623 2°56.047 20.2852 0.067111 0.355305 -1.209513
2008-09-10 06:44:40 51°13.623 2°56.047 20.2873 0.067111 0.355311 -1.209513
2008-09-10 06:44:45 51°13.623 2°56.047 20.2871 0.067111 0.355317 -1.209513
2008-09-10 06:44:50 51°13.623 2°56.047 20.2935 0.067111 0.355317 -1.209513
2008-09-10 06:44:55 51°13.623 2°56.047 20.2961 0.067111 0.355317 -1.209513
2008-09-10 06:45:00 51°13.623 2°56.047 20.3019 0.067111 0.355323 -1.209513
2008-09-10 06:45:05 51°13.623 2°56.047 20.3048 0.067111 0.355329 -1.209513
2008-09-10 06:45:10 51°13.623 2°56.047 20.3098 0.067111 0.355335 -1.209513
2008-09-10 06:45:15 51°13.623 2°56.047 20.3141 0.067111 0.355335 -1.209513
2008-09-10 06:45:20 51°13.623 2°56.047 20.3148 0.067111 0.355335 -1.209513
2008-09-10 06:45:25 51°13.623 2°56.047 20.3179 0.067111 0.355335 -1.209513
2008-09-10 06:45:30 51°13.623 2°56.047 20.3188 0.067111 0.355341 -1.209513
2008-09-10 06:45:35 51°13.623 2°56.047 20.32 0.067111 0.355347 -1.209513
2008-09-10 06:45:40 51°13.623 2°56.047 20.3225 0.067111 0.355353 -1.209513
2008-09-10 06:45:45 51°13.623 2°56.047 20.3238 0.067111 0.355359 -1.209513
2008-09-10 06:45:50 51°13.623 2°56.047 20.3258 0.067111 0.355359 -1.209513
2008-09-10 06:45:55 51°13.623 2°56.047 20.3288 0.067111 0.355365 -1.209513
2008-09-10 06:46:00 51°13.623 2°56.047 20.3318 0.067111 0.355365 -1.209513
2008-09-10 06:46:05 51°13.624 2°56.047 20.332 0.067111 0.355371 -1.209513
2008-09-10 06:46:10 51°13.624 2°56.047 20.3331 0.067111 0.355377 -1.209513
2008-09-10 06:46:15 51°13.623 2°56.047 20.3346 0.067111 0.355377 -1.209513
2008-09-10 06:46:20 51°13.623 2°56.047 20.3356 0.067111 0.355377 -1.209513
2008-09-10 06:46:25 51°13.623 2°56.047 20.3372 0.067111 0.355383 -1.209513
2008-09-10 06:46:30 51°13.623 2°56.047 20.3349 0.067111 0.355389 -1.209513
2008-09-10 06:46:35 51°13.624 2°56.047 20.3335 0.067111 0.355389 -1.209513
2008-09-10 06:46:40 51°13.624 2°56.047 20.3346 0.067111 0.355395 -1.209513
2008-09-10 06:46:45 51°13.623 2°56.047 20.3346 0.067111 0.355401 -1.209513
2008-09-10 06:46:50 51°13.623 2°56.047 20.3367 0.067111 0.355401 -1.209513
2008-09-10 06:46:55 51°13.624 2°56.047 20.3392 0.067111 0.355407 -1.209513
2008-09-10 06:47:00 51°13.624 2°56.047 20.3408 0.067111 0.355407 -1.209513
2008-09-10 06:47:05 51°13.624 2°56.047 20.3432 0.067111 0.355413 -1.209513
2008-09-10 06:47:10 51°13.624 2°56.047 20.3457 0.067111 0.355413 -1.209513
2008-09-10 06:47:15 51°13.624 2°56.047 20.3475 0.067111 0.355419 -1.209513
2008-09-10 06:47:20 51°13.624 2°56.047 20.3531 0.067111 0.355419 -1.209513
2008-09-10 06:47:25 51°13.624 2°56.047 20.3586 0.067111 0.355425 -1.209513
2008-09-10 06:47:30 51°13.624 2°56.047 20.3619 0.067111 0.355431 -1.209513
2008-09-10 06:47:35 51°13.624 2°56.047 20.363 0.067111 0.355431 -1.209513
2008-09-10 06:47:40 51°13.624 2°56.047 20.3633 0.067111 0.355437 -1.209513
2008-09-10 06:47:45 51°13.624 2°56.047 20.3645 0.067111 0.355443 -1.209513
2008-09-10 06:47:50 51°13.624 2°56.047 20.3654 0.067111 0.355443 -1.209513
2008-09-10 06:47:55 51°13.624 2°56.047 20.365 0.067111 0.355449 -1.209513
2008-09-10 06:48:00 51°13.624 2°56.047 20.3643 0.067111 0.355449 -1.209513
2008-09-10 06:48:05 51°13.624 2°56.047 20.3642 0.067111 0.355455 -1.209513
2008-09-10 06:48:11 51°13.624 2°56.047 20.3637 0.067111 0.355461 -1.209513
2008-09-10 06:48:15 51°13.624 2°56.047 20.3645 0.067111 0.355467 -1.209513
2008-09-10 06:48:20 51°13.624 2°56.047 20.3639 0.067111 0.355467 -1.209513
2008-09-10 06:48:25 51°13.624 2°56.047 20.3633 0.067111 0.355467 -1.209513
2008-09-10 06:48:30 51°13.624 2°56.047 20.3633 0.067111 0.355473 -1.209513
2008-09-10 06:48:35 51°13.625 2°56.047 20.3633 0.067111 0.355479 -1.209513
2008-09-10 06:48:40 51°13.625 2°56.047 20.3628 0.067111 0.355479 -1.209513
2008-09-10 06:48:45 51°13.625 2°56.047 20.3637 0.067111 0.355485 -1.209513
2008-09-10 06:48:50 51°13.625 2°56.047 20.363 0.067111 0.355485 -1.209513
2008-09-10 06:48:55 51°13.625 2°56.047 20.3651 0.067111 0.355491 -1.209513
2008-09-10 06:49:00 51°13.625 2°56.047 20.3662 0.067111 0.355498 -1.209513
2008-09-10 06:49:05 51°13.625 2°56.047 20.3671 0.067111 0.355504 -1.209513
2008-09-10 06:49:10 51°13.624 2°56.047 20.3675 0.067111 0.355504 -1.209513
2008-09-10 06:49:15 51°13.624 2°56.047 20.368 0.067111 0.35551 -1.209513
2008-09-10 06:49:20 51°13.624 2°56.048 20.3684 0.067111 0.35551 -1.209513
2008-09-10 06:49:25 51°13.624 2°56.048 20.3712 0.067111 0.355516 -1.209513
2008-09-10 06:49:30 51°13.624 2°56.048 20.375 0.067111 0.355516 -1.209513
2008-09-10 06:49:35 51°13.624 2°56.048 20.3774 0.067111 0.355522 -1.209513
2008-09-10 06:49:40 51°13.624 2°56.048 20.377 0.067111 0.355528 -1.209513
2008-09-10 06:49:45 51°13.624 2°56.048 20.376 0.067111 0.355534 -1.209513
2008-09-10 06:49:50 51°13.624 2°56.048 20.3784 0.067111 0.355534 -1.209513
2008-09-10 06:49:55 51°13.624 2°56.048 20.3772 0.067111 0.355534 -1.209513
2008-09-10 06:50:00 51°13.624 2°56.048 20.3794 0.067111 0.35554 -1.209513
2008-09-10 06:50:05 51°13.624 2°56.048 20.3802 0.067111 0.355546 -1.209513
2008-09-10 06:50:10 51°13.624 2°56.048 20.3796 0.067111 0.355546 -1.209513
2008-09-10 06:50:15 51°13.624 2°56.048 20.3799 0.067111 0.355552 -1.209513
2008-09-10 06:50:20 51°13.624 2°56.048 20.3805 0.067111 0.355552 -1.209513
2008-09-10 06:50:25 51°13.624 2°56.048 20.3795 0.067111 0.355558 -1.209513
2008-09-10 06:50:31 51°13.624 2°56.048 20.3788 0.067111 0.355564 -1.209513
2008-09-10 06:50:35 51°13.624 2°56.048 20.3761 0.067111 0.35557 -1.209513
2008-09-10 06:50:40 51°13.624 2°56.048 20.377 0.067111 0.35557 -1.209513
2008-09-10 06:50:45 51°13.624 2°56.048 20.3779 0.067111 0.355576 -1.209513
2008-09-10 06:50:50 51°13.624 2°56.048 20.3795 0.067111 0.355576 -1.209513
2008-09-10 06:50:55 51°13.624 2°56.048 20.3817 0.067111 0.355576 -1.209513
2008-09-10 06:51:00 51°13.624 2°56.048 20.3828 0.067111 0.355582 -1.209513
2008-09-10 06:51:05 51°13.624 2°56.048 20.3842 0.067111 0.355588 -1.209513
2008-09-10 06:51:10 51°13.624 2°56.048 20.3841 0.067111 0.355594 -1.209513
2008-09-10 06:51:15 51°13.624 2°56.048 20.3857 0.067111 0.355594 -1.209513
2008-09-10 06:51:20 51°13.624 2°56.048 20.3859 0.067111 0.355594 -1.209513
2008-09-10 06:51:25 51°13.624 2°56.048 20.3853 0.067111 0.3556 -1.209513
2008-09-10 06:51:30 51°13.624 2°56.048 20.3855 0.067111 0.355606 -1.209513
2008-09-10 06:51:35 51°13.624 2°56.048 20.3858 0.067111 0.355612 -1.209513
2008-09-10 06:51:40 51°13.624 2°56.048 20.3865 0.067111 0.355612 -1.209513
2008-09-10 06:51:45 51°13.624 2°56.048 20.3867 0.067111 0.355618 -1.209513
2008-09-10 06:51:50 51°13.624 2°56.048 20.387 0.067111 0.355618 -1.209513
2008-09-10 06:51:55 51°13.624 2°56.048 20.3876 0.067111 0.355624 -1.209513
2008-09-10 06:52:00 51°13.624 2°56.048 20.3881 0.067111 0.35563 -1.209513
2008-09-10 06:52:05 51°13.624 2°56.048 20.3886 0.067009 0.355068 -1.209513
2008-09-10 06:52:10 51°13.624 2°56.048 20.3885 0.067009 0.355074 -1.209513
2008-09-10 06:52:15 51°13.624 2°56.048 20.3905 0.067111 0.355642 -1.209513
2008-09-10 06:52:20 51°13.624 2°56.048 20.3912 0.067111 0.355642 -1.209513
2008-09-10 06:52:25 51°13.624 2°56.048 20.3912 0.067009 0.35508 -1.209513
2008-09-10 06:52:31 51°13.625 2°56.048 20.3889 0.067009 0.355086 -1.209513
2008-09-10 06:52:35 51°13.625 2°56.048 20.3889 0.067009 0.355086 -1.209513
2008-09-10 06:52:40 51°13.625 2°56.048 20.388 0.067009 0.355092 -1.209513
2008-09-10 06:52:45 51°13.625 2°56.048 20.3876 0.067009 0.355098 -1.209513
2008-09-10 06:52:50 51°13.625 2°56.048 20.386 0.067009 0.355098 -1.209513
2008-09-10 06:52:55 51°13.624 2°56.048 20.3828 0.067009 0.355104 -1.209513
2008-09-10 06:53:00 51°13.624 2°56.048 20.383 0.067009 0.355104 -1.209513
2008-09-10 06:53:05 51°13.624 2°56.048 20.3837 0.067009 0.35511 -1.209513
2008-09-10 06:53:10 51°13.625 2°56.048 20.3849 0.067009 0.355116 -1.209513
2008-09-10 06:53:15 51°13.625 2°56.048 20.3867 0.067009 0.355122 -1.209513
2008-09-10 06:53:20 51°13.625 2°56.048 20.3884 0.067009 0.355122 -1.209513
2008-09-10 06:53:25 51°13.625 2°56.048 20.3891 0.067009 0.355128 -1.209513
2008-09-10 06:53:30 51°13.625 2°56.048 20.3903 0.067009 0.355128 -1.209513
2008-09-10 06:53:35 51°13.625 2°56.048 20.3903 0.067009 0.355134 -1.209513
2008-09-10 06:53:40 51°13.624 2°56.048 20.3913 0.067009 0.35514 -1.209513
2008-09-10 06:53:45 51°13.624 2°56.048 20.3925 0.067009 0.35514 -1.209513
2008-09-10 06:53:50 51°13.624 2°56.048 20.3924 0.067009 0.35514 -1.209513
2008-09-10 06:53:55 51°13.624 2°56.048 20.394 0.067009 0.355146 -1.209513
2008-09-10 06:54:00 51°13.624 2°56.048 20.3941 0.067009 0.355152 -1.209513
2008-09-10 06:54:05 51°13.624 2°56.048 20.3956 0.067009 0.355152 -1.209513
2008-09-10 06:54:10 51°13.624 2°56.048 20.3968 0.067009 0.355158 -1.244337
2008-09-10 06:54:15 51°13.624 2°56.048 20.3971 0.067009 0.355158 -1.209513
2008-09-10 06:54:20 51°13.624 2°56.048 20.3983 0.067009 0.355158 -1.209513
2008-09-10 06:54:25 51°13.624 2°56.048 20.3998 0.067009 0.355164 -1.209513
2008-09-10 06:54:30 51°13.624 2°56.048 20.4005 0.067009 0.35517 -1.209513
2008-09-10 06:54:35 51°13.624 2°56.048 20.4018 0.067009 0.355176 -1.209513
2008-09-10 06:54:40 51°13.624 2°56.048 20.4026 0.067009 0.355182 -1.209513
2008-09-10 06:54:45 51°13.624 2°56.048 20.4025 0.067009 0.355182 -1.209513
2008-09-10 06:54:50 51°13.623 2°56.047 20.4033 0.067009 0.355182 -1.209513
2008-09-10 06:54:55 51°13.623 2°56.047 20.4044 0.067009 0.355188 -1.209513
2008-09-10 06:55:00 51°13.623 2°56.047 20.4034 0.067009 0.355194 -1.209513
2008-09-10 06:55:05 51°13.623 2°56.048 20.4041 0.067009 0.3552 -1.209513
2008-09-10 06:55:10 51°13.623 2°56.047 20.4048 0.067009 0.355206 -1.209513
2008-09-10 06:55:15 51°13.623 2°56.047 20.4048 0.067009 0.355206 -1.209513
2008-09-10 06:55:20 51°13.623 2°56.047 20.4052 0.067009 0.355206 -1.209513
2008-09-10 06:55:25 51°13.623 2°56.047 20.4055 0.067009 0.355212 -1.209513
2008-09-10 06:55:30 51°13.623 2°56.047 20.4065 0.067009 0.355218 -1.209513
2008-09-10 06:55:35 51°13.623 2°56.047 20.4053 0.067009 0.355224 -1.209513
2008-09-10 06:55:40 51°13.623 2°56.047 20.4065 0.067009 0.355224 -1.209513
2008-09-10 06:55:45 51°13.623 2°56.047 20.4072 0.067009 0.35523 -1.209513
2008-09-10 06:55:50 51°13.623 2°56.047 20.4084 0.067009 0.35523 -1.209513
2008-09-10 06:55:55 51°13.623 2°56.047 20.4084 0.067009 0.355237 -1.209513
2008-09-10 06:56:00 51°13.623 2°56.047 20.411 0.067009 0.355243 -1.209513
2008-09-10 06:56:05 51°13.623 2°56.047 20.4123 0.067009 0.355243 -1.209513
2008-09-10 06:56:10 51°13.623 2°56.047 20.4126 0.067009 0.355249 -1.209513
2008-09-10 06:56:15 51°13.623 2°56.047 20.4133 0.067009 0.355255 -1.209513
2008-09-10 06:56:20 51°13.623 2°56.047 20.4132 0.067009 0.355255 -1.209513
2008-09-10 06:56:25 51°13.623 2°56.047 20.4146 0.067009 0.355261 -1.209513
2008-09-10 06:56:30 51°13.623 2°56.047 20.4155 0.067009 0.355261 -1.209513
2008-09-10 06:56:35 51°13.623 2°56.047 20.4165 0.067009 0.355273 -1.209513
2008-09-10 06:56:40 51°13.623 2°56.047 20.417 0.067009 0.355273 -1.209513
2008-09-10 06:56:46 51°13.623 2°56.047 20.4185 0.067009 0.355279 -1.209513
2008-09-10 06:56:50 51°13.623 2°56.047 20.4194 0.067009 0.355279 -1.209513
2008-09-10 06:56:55 51°13.623 2°56.047 20.42 0.067009 0.355279 -1.209513
2008-09-10 06:57:00 51°13.623 2°56.047 20.4198 0.067009 0.355285 -1.209513
2008-09-10 06:57:05 51°13.623 2°56.047 20.4199 0.067009 0.355291 -1.209513
2008-09-10 06:57:10 51°13.623 2°56.047 20.4216 0.067009 0.355297 -1.209513
2008-09-10 06:57:15 51°13.623 2°56.047 20.4218 0.067009 0.355297 -1.209513
2008-09-10 06:57:20 51°13.623 2°56.047 20.4214 0.067009 0.355297 -1.209513
2008-09-10 06:57:25 51°13.623 2°56.047 20.4217 0.067009 0.355303 -1.209513
2008-09-10 06:57:30 51°13.623 2°56.047 20.4202 0.067009 0.355309 -1.209513
2008-09-10 06:57:35 51°13.623 2°56.047 20.4206 0.067009 0.355315 -1.209513
2008-09-10 06:57:40 51°13.623 2°56.047 20.4219 0.067009 0.355315 -1.209513
2008-09-10 06:57:45 51°13.623 2°56.047 20.4231 0.067009 0.355321 -1.209513
2008-09-10 06:57:50 51°13.623 2°56.047 20.4247 0.067009 0.355321 -1.209513
2008-09-10 06:57:55 51°13.623 2°56.047 20.4262 0.067009 0.355327 -1.209513
2008-09-10 06:58:00 51°13.623 2°56.047 20.4276 0.067009 0.355327 -1.209513
2008-09-10 06:58:05 51°13.623 2°56.047 20.4277 0.067009 0.355333 -1.209513
2008-09-10 06:58:10 51°13.623 2°56.047 20.4288 0.067009 0.355339 -1.209513
2008-09-10 06:58:15 51°13.623 2°56.047 20.4294 0.067009 0.355339 -1.209513
2008-09-10 06:58:20 51°13.622 2°56.047 20.4309 0.067009 0.355339 -1.209513
2008-09-10 06:58:25 51°13.622 2°56.047 20.4319 0.067009 0.355345 -1.209513
2008-09-10 06:58:30 51°13.622 2°56.047 20.4334 0.067009 0.355351 -1.209513
2008-09-10 06:58:35 51°13.622 2°56.047 20.4333 0.067009 0.355357 -1.209513
2008-09-10 06:58:40 51°13.623 2°56.047 20.4348 0.067009 0.355357 -1.209513
2008-09-10 06:58:45 51°13.623 2°56.047 20.4347 0.067009 0.355363 -1.244337
2008-09-10 06:58:50 51°13.623 2°56.047 20.4367 0.067009 0.355363 -1.244337
2008-09-10 06:58:55 51°13.623 2°56.047 20.4378 0.067009 0.355369 -1.209513
2008-09-10 06:59:00 51°13.623 2°56.047 20.4384 0.067009 0.355375 -1.209513
2008-09-10 06:59:05 51°13.623 2°56.047 20.4397 0.067009 0.355381 -1.209513
2008-09-10 06:59:10 51°13.623 2°56.047 20.4403 0.067009 0.355381 -1.209513
2008-09-10 06:59:15 51°13.623 2°56.048 20.44 0.067009 0.355387 -1.209513
2008-09-10 06:59:20 51°13.623 2°56.048 20.4412 0.067009 0.355387 -1.209513
2008-09-10 06:59:25 51°13.623 2°56.048 20.4411 0.067009 0.355393 -1.209513
2008-09-10 06:59:31 51°13.623 2°56.048 20.442 0.067009 0.355399 -1.209513
2008-09-10 06:59:35 51°13.623 2°56.048 20.442 0.067009 0.355399 -1.209513
2008-09-10 06:59:40 51°13.623 2°56.048 20.4426 0.067009 0.355405 -1.209513
2008-09-10 06:59:45 51°13.623 2°56.048 20.4428 0.067009 0.355411 -1.209513
2008-09-10 06:59:50 51°13.623 2°56.048 20.4436 0.067009 0.355411 -1.209513
2008-09-10 06:59:55 51°13.623 2°56.048 20.4435 0.067009 0.355411 -1.209513
2008-09-10 07:00:00 51°13.623 2°56.048 20.4435 0.067009 0.355417 -1.209513
2008-09-10 07:00:05 51°13.623 2°56.048 20.4417 0.067009 0.355423 -1.209513
2008-09-10 07:00:10 51°13.623 2°56.048 20.441 0.067009 0.355423 -1.209513
2008-09-10 07:00:15 51°13.623 2°56.048 20.4424 0.067009 0.355429 -1.209513
2008-09-10 07:00:20 51°13.623 2°56.048 20.4428 0.067009 0.355429 -1.209513
2008-09-10 07:00:25 51°13.623 2°56.048 20.4443 0.067009 0.355435 -1.209513
2008-09-10 07:00:30 51°13.623 2°56.048 20.4454 0.067009 0.355435 -1.209513
2008-09-10 07:00:35 51°13.623 2°56.048 20.4462 0.067009 0.355441 -1.209513
2008-09-10 07:00:40 51°13.623 2°56.048 20.4478 0.067009 0.355447 -1.209513
2008-09-10 07:00:45 51°13.623 2°56.048 20.4489 0.067009 0.355453 -1.209513
2008-09-10 07:00:50 51°13.623 2°56.048 20.4509 0.067009 0.355453 -1.209513
2008-09-10 07:00:55 51°13.623 2°56.048 20.4509 0.067009 0.355453 -1.209513
2008-09-10 07:01:00 51°13.623 2°56.048 20.4507 0.067009 0.35546 -1.209513
2008-09-10 07:01:05 51°13.623 2°56.048 20.4507 0.067009 0.35546 -1.209513
2008-09-10 07:01:10 51°13.623 2°56.048 20.452 0.067009 0.355466 -1.209513
2008-09-10 07:01:15 51°13.623 2°56.048 20.452 0.067009 0.355472 -1.209513
2008-09-10 07:01:20 51°13.623 2°56.048 20.452 0.067009 0.355472 -1.209513
2008-09-10 07:01:25 51°13.623 2°56.048 20.4527 0.067009 0.355472 -1.209513
2008-09-10 07:01:31 51°13.623 2°56.048 20.454 0.067009 0.355478 -1.209513
2008-09-10 07:01:35 51°13.623 2°56.048 20.4552 0.067009 0.355484 -1.209513
2008-09-10 07:01:40 51°13.623 2°56.048 20.457 0.067009 0.35549 -1.209513
2008-09-10 07:01:45 51°13.623 2°56.048 20.4577 0.067009 0.35549 -1.209513
2008-09-10 07:01:50 51°13.623 2°56.048 20.4592 0.067009 0.35549 -1.209513
2008-09-10 07:01:55 51°13.623 2°56.048 20.4602 0.067009 0.355496 -1.209513
2008-09-10 07:02:00 51°13.623 2°56.048 20.4619 0.067009 0.355496 -1.209513
2008-09-10 07:02:05 51°13.623 2°56.048 20.4622 0.067009 0.355502 -1.209513
2008-09-10 07:02:10 51°13.623 2°56.048 20.4637 0.067009 0.355508 -1.209513
2008-09-10 07:02:15 51°13.623 2°56.048 20.4647 0.067009 0.355514 -1.209513
2008-09-10 07:02:20 51°13.623 2°56.048 20.4655 0.067009 0.355514 -1.209513
2008-09-10 07:02:25 51°13.624 2°56.048 20.466 0.067009 0.355514 -1.209513
2008-09-10 07:02:30 51°13.624 2°56.048 20.4665 0.067009 0.35552 -1.209513
2008-09-10 07:02:35 51°13.624 2°56.048 20.4664 0.067009 0.355526 -1.209513
2008-09-10 07:02:40 51°13.624 2°56.048 20.467 0.067009 0.355526 -1.209513
2008-09-10 07:02:45 51°13.624 2°56.048 20.4682 0.067009 0.355532 -1.209513
2008-09-10 07:02:50 51°13.624 2°56.048 20.4688 0.067009 0.355532 -1.209513
2008-09-10 07:02:55 51°13.624 2°56.048 20.4682 0.067009 0.355538 -1.209513
2008-09-10 07:03:00 51°13.624 2°56.048 20.469 0.067009 0.355544 -1.209513
2008-09-10 07:03:05 51°13.624 2°56.048 20.4698 0.067009 0.355544 -1.209513
2008-09-10 07:03:10 51°13.624 2°56.048 20.4702 0.067009 0.35555 -1.209513
2008-09-10 07:03:15 51°13.624 2°56.048 20.4712 0.067009 0.35555 -1.244337
2008-09-10 07:03:20 51°13.624 2°56.048 20.4722 0.067009 0.35555 -1.244337
2008-09-10 07:03:25 51°13.624 2°56.048 20.4729 0.067009 0.355556 -1.209513
2008-09-10 07:03:30 51°13.624 2°56.048 20.4733 0.067009 0.355562 -1.209513
2008-09-10 07:03:35 51°13.624 2°56.048 20.4727 0.067009 0.355568 -1.209513
2008-09-10 07:03:40 51°13.624 2°56.048 20.4733 0.067009 0.355568 -1.209513
2008-09-10 07:03:45 51°13.624 2°56.048 20.4738 0.067009 0.355574 -1.209513
2008-09-10 07:03:51 51°13.624 2°56.048 20.474 0.067009 0.355574 -1.209513
2008-09-10 07:03:55 51°13.624 2°56.048 20.4744 0.067009 0.35558 -1.209513
2008-09-10 07:04:00 51°13.624 2°56.048 20.4758 0.067009 0.35558 -1.209513
2008-09-10 07:04:05 51°13.624 2°56.048 20.4766 0.067009 0.355586 -1.209513
2008-09-10 07:04:11 51°13.624 2°56.048 20.4771 0.067009 0.355592 -1.209513
2008-09-10 07:04:15 51°13.624 2°56.048 20.477 0.067009 0.355592 -1.209513
2008-09-10 07:04:20 51°13.624 2°56.048 20.4777 0.067009 0.355592 -1.209513
2008-09-10 07:04:25 51°13.624 2°56.048 20.4767 0.067009 0.355598 -1.209513
2008-09-10 07:04:30 51°13.624 2°56.048 20.4765 0.067009 0.355604 -1.209513
2008-09-10 07:04:35 51°13.624 2°56.048 20.4745 0.067009 0.355604 -1.209513
2008-09-10 07:04:40 51°13.624 2°56.048 20.4749 0.067009 0.35561 -1.209513
2008-09-10 07:04:45 51°13.624 2°56.048 20.4766 0.067009 0.355616 -1.209513
2008-09-10 07:04:50 51°13.624 2°56.048 20.4773 0.067009 0.355616 -1.209513
2008-09-10 07:04:55 51°13.624 2°56.048 20.4782 0.067009 0.355622 -1.209513
2008-09-10 07:05:00 51°13.624 2°56.048 20.4789 0.067009 0.355622 -1.209513
2008-09-10 07:05:05 51°13.624 2°56.048 20.48 0.067009 0.355629 -1.209513
2008-09-10 07:05:10 51°13.624 2°56.048 20.4808 0.067009 0.355629 -1.209513
2008-09-10 07:05:15 51°13.624 2°56.048 20.4816 0.067009 0.355635 -1.209513
2008-09-10 07:05:20 51°13.624 2°56.048 20.4842 0.067009 0.355635 -1.209513
2008-09-10 07:05:25 51°13.624 2°56.048 20.4846 0.066906 0.355078 -1.209513
2008-09-10 07:05:30 51°13.624 2°56.048 20.487 0.067009 0.355641 -1.209513
2008-09-10 07:05:35 51°13.624 2°56.048 20.4881 0.067009 0.355647 -1.209513
2008-09-10 07:05:40 51°13.624 2°56.048 20.4872 0.066906 0.35509 -1.209513
2008-09-10 07:05:45 51°13.624 2°56.048 20.4877 0.067009 0.355653 -1.209513
2008-09-10 07:05:50 51°13.624 2°56.048 20.4887 0.067009 0.355653 -1.209513
2008-09-10 07:05:55 51°13.624 2°56.048 20.4883 0.067009 0.355659 -1.209513
2008-09-10 07:06:00 51°13.624 2°56.047 20.4894 0.066906 0.355102 -1.209513
2008-09-10 07:06:05 51°13.624 2°56.047 20.4898 0.066906 0.355108 -1.209513
2008-09-10 07:06:11 51°13.624 2°56.047 20.491 0.066906 0.355114 -1.209513
2008-09-10 07:06:15 51°13.624 2°56.047 20.4927 0.066906 0.355114 -1.209513
2008-09-10 07:06:20 51°13.624 2°56.047 20.4938 0.066906 0.355114 -1.209513
2008-09-10 07:06:25 51°13.624 2°56.047 20.4946 0.066906 0.35512 -1.209513
2008-09-10 07:06:30 51°13.624 2°56.047 20.495 0.066906 0.355126 -1.209513
2008-09-10 07:06:35 51°13.624 2°56.047 20.4961 0.066906 0.355126 -1.209513
2008-09-10 07:06:40 51°13.624 2°56.047 20.4948 0.066906 0.355132 -1.209513
2008-09-10 07:06:45 51°13.624 2°56.047 20.494 0.066906 0.355138 -1.209513
2008-09-10 07:06:50 51°13.624 2°56.047 20.4928 0.066906 0.355138 -1.209513
2008-09-10 07:06:55 51°13.624 2°56.047 20.4926 0.066906 0.355144 -1.209513
2008-09-10 07:07:00 51°13.624 2°56.047 20.4906 0.066906 0.355144 -1.209513
2008-09-10 07:07:05 51°13.624 2°56.047 20.4912 0.066906 0.35515 -1.209513
2008-09-10 07:07:10 51°13.624 2°56.047 20.4887 0.066906 0.355156 -1.209513
2008-09-10 07:07:15 51°13.624 2°56.047 20.4887 0.066906 0.355156 -1.209513
2008-09-10 07:07:20 51°13.624 2°56.047 20.4897 0.066906 0.355156 -1.209513
2008-09-10 07:07:25 51°13.624 2°56.047 20.4894 0.066906 0.355162 -1.209513
2008-09-10 07:07:30 51°13.624 2°56.047 20.4881 0.066906 0.355162 -1.209513
2008-09-10 07:07:35 51°13.624 2°56.047 20.4901 0.066906 0.355168 -1.209513
2008-09-10 07:07:40 51°13.624 2°56.047 20.492 0.066906 0.355174 -1.209513
2008-09-10 07:07:45 51°13.624 2°56.047 20.4939 0.066906 0.35518 -1.209513
2008-09-10 07:07:50 51°13.624 2°56.048 20.4946 0.066906 0.35518 -1.209513
2008-09-10 07:07:55 51°13.624 2°56.048 20.4945 0.066906 0.355186 -1.209513
2008-09-10 07:08:00 51°13.624 2°56.048 20.4924 0.066906 0.355186 -1.209513
2008-09-10 07:08:06 51°13.624 2°56.047 20.4916 0.066906 0.355186 -1.209513
2008-09-10 07:08:10 51°13.624 2°56.047 20.4868 0.066906 0.355198 -1.209513
2008-09-10 07:08:15 51°13.624 2°56.047 20.4866 0.066906 0.355204 -1.209513
2008-09-10 07:08:20 51°13.624 2°56.047 20.4877 0.066906 0.355204 -1.209513
2008-09-10 07:08:25 51°13.624 2°56.047 20.4896 0.066906 0.355204 -1.209513
2008-09-10 07:08:30 51°13.624 2°56.047 20.4948 0.066906 0.35521 -1.209513
2008-09-10 07:08:35 51°13.624 2°56.047 20.4961 0.066906 0.355216 -1.209513
2008-09-10 07:08:40 51°13.624 2°56.047 20.4974 0.066906 0.355216 -1.209513
2008-09-10 07:08:45 51°13.624 2°56.047 20.4994 0.066906 0.355222 -1.209513
2008-09-10 07:08:51 51°13.624 2°56.047 20.5002 0.066906 0.355222 -1.209513
2008-09-10 07:08:55 51°13.624 2°56.047 20.5028 0.066906 0.355228 -1.209513
2008-09-10 07:09:00 51°13.624 2°56.047 20.503 0.066906 0.355228 -1.209513
2008-09-10 07:09:05 51°13.624 2°56.047 20.5018 0.066906 0.355234 -1.209513
2008-09-10 07:09:10 51°13.624 2°56.047 20.5041 0.066906 0.355241 -1.209513
2008-09-10 07:09:15 51°13.624 2°56.047 20.5056 0.066906 0.355247 -1.209513
2008-09-10 07:09:20 51°13.624 2°56.047 20.5068 0.066906 0.355247 -1.209513
2008-09-10 07:09:25 51°13.624 2°56.047 20.5077 0.066906 0.355247 -1.209513
2008-09-10 07:09:30 51°13.624 2°56.047 20.5089 0.066906 0.355253 -1.209513
2008-09-10 07:09:35 51°13.624 2°56.047 20.5097 0.066906 0.355259 -1.209513
2008-09-10 07:09:40 51°13.624 2°56.047 20.5106 0.066906 0.355259 -1.209513
2008-09-10 07:09:45 51°13.624 2°56.048 20.5115 0.066906 0.355265 -1.209513
2008-09-10 07:09:50 51°13.624 2°56.048 20.5112 0.066906 0.355265 -1.209513
2008-09-10 07:09:55 51°13.624 2°56.048 20.5128 0.066906 0.355265 -1.209513
2008-09-10 07:10:00 51°13.624 2°56.048 20.5135 0.066906 0.355271 -1.209513
2008-09-10 07:10:05 51°13.624 2°56.048 20.5099 0.066906 0.355277 -1.209513
2008-09-10 07:10:10 51°13.624 2°56.048 20.5174 0.066906 0.355283 -1.209513
2008-09-10 07:10:15 51°13.624 2°56.048 20.5147 0.066906 0.355283 -1.209513
2008-09-10 07:10:20 51°13.624 2°56.048 20.5207 0.066906 0.355283 -1.209513
2008-09-10 07:10:25 51°13.624 2°56.048 20.52 0.066906 0.355283 -1.209513
2008-09-10 07:10:31 51°13.623 2°56.048 20.5251 0.066906 0.355289 -1.209513
2008-09-10 07:10:35 51°13.624 2°56.048 20.5277 0.066906 0.355295 -1.209513
2008-09-10 07:10:40 51°13.624 2°56.048 20.5311 0.066906 0.355295 -1.209513
2008-09-10 07:10:45 51°13.623 2°56.048 20.5346 0.066906 0.355307 -1.209513
2008-09-10 07:10:51 51°13.623 2°56.048 20.5456 0.066906 0.355307 -1.209513
2008-09-10 07:10:55 51°13.623 2°56.048 20.5505 0.066906 0.355307 -1.209513
2008-09-10 07:11:00 51°13.624 2°56.048 20.5612 0.066906 0.355313 -1.209513
2008-09-10 07:11:05 51°13.624 2°56.048 20.5588 0.066906 0.355319 -1.209513
2008-09-10 07:11:10 51°13.624 2°56.048 20.5453 0.066906 0.355325 -1.209513
2008-09-10 07:11:15 51°13.624 2°56.048 20.5381 0.066906 0.355331 -1.209513
2008-09-10 07:11:20 51°13.624 2°56.048 20.5362 0.066906 0.355331 -1.209513
2008-09-10 07:11:25 51°13.624 2°56.048 20.5336 0.066906 0.355337 -1.209513
2008-09-10 07:11:30 51°13.624 2°56.048 20.5324 0.066906 0.355337 -1.209513
2008-09-10 07:11:35 51°13.624 2°56.048 20.5331 0.066906 0.355343 -1.209513
2008-09-10 07:11:40 51°13.624 2°56.048 20.5346 0.066906 0.355349 -1.209513
2008-09-10 07:11:45 51°13.624 2°56.048 20.5376 0.066906 0.355349 -1.209513
2008-09-10 07:11:50 51°13.624 2°56.048 20.5383 0.066906 0.355349 -1.209513
2008-09-10 07:11:55 51°13.624 2°56.048 20.5396 0.066906 0.355355 -1.209513
2008-09-10 07:12:00 51°13.623 2°56.048 20.5389 0.066906 0.355361 -1.209513
2008-09-10 07:12:05 51°13.623 2°56.048 20.5391 0.066906 0.355361 -1.209513
2008-09-10 07:12:10 51°13.623 2°56.048 20.5432 0.066906 0.355361 -1.209513
2008-09-10 07:12:15 51°13.623 2°56.048 20.5486 0.066906 0.355373 -1.209513
2008-09-10 07:12:20 51°13.623 2°56.048 20.5489 0.066906 0.355373 -1.209513
2008-09-10 07:12:25 51°13.623 2°56.048 20.5505 0.066906 0.355373 -1.209513
2008-09-10 07:12:30 51°13.623 2°56.048 20.5526 0.066906 0.355379 -1.209513
2008-09-10 07:12:35 51°13.623 2°56.048 20.5526 0.066906 0.355385 -1.209513
2008-09-10 07:12:40 51°13.623 2°56.048 20.5516 0.066906 0.355391 -1.209513
2008-09-10 07:12:45 51°13.623 2°56.048 20.5506 0.066906 0.355398 -1.209513
2008-09-10 07:12:50 51°13.623 2°56.048 20.5504 0.066906 0.355398 -1.209513
2008-09-10 07:12:55 51°13.623 2°56.048 20.5494 0.066906 0.355398 -1.209513
2008-09-10 07:13:00 51°13.623 2°56.048 20.5496 0.066906 0.355404 -1.209513
2008-09-10 07:13:05 51°13.623 2°56.048 20.5498 0.066906 0.35541 -1.209513
2008-09-10 07:13:10 51°13.623 2°56.048 20.5516 0.066906 0.355416 -1.209513
2008-09-10 07:13:15 51°13.623 2°56.048 20.5525 0.066906 0.355416 -1.209513
2008-09-10 07:13:20 51°13.623 2°56.048 20.551 0.066906 0.355416 -1.209513
2008-09-10 07:13:25 51°13.623 2°56.048 20.5509 0.066906 0.355422 -1.209513
2008-09-10 07:13:30 51°13.623 2°56.048 20.5516 0.066906 0.355428 -1.209513
2008-09-10 07:13:35 51°13.623 2°56.048 20.5492 0.066906 0.355428 -1.209513
2008-09-10 07:13:40 51°13.623 2°56.048 20.5447 0.066906 0.355434 -1.209513
2008-09-10 07:13:45 51°13.623 2°56.048 20.5424 0.066906 0.35544 -1.209513
2008-09-10 07:13:50 51°13.623 2°56.048 20.5416 0.066906 0.35544 -1.209513
2008-09-10 07:13:55 51°13.623 2°56.048 20.528 0.066906 0.355446 -1.209513
2008-09-10 07:14:00 51°13.623 2°56.048 20.5278 0.066906 0.355446 -1.209513
2008-09-10 07:14:05 51°13.623 2°56.048 20.5411 0.066906 0.355452 -1.209513
2008-09-10 07:14:10 51°13.623 2°56.048 20.5448 0.066906 0.355452 -1.209513
2008-09-10 07:14:15 51°13.623 2°56.048 20.5469 0.066906 0.355458 -1.209513
2008-09-10 07:14:20 51°13.623 2°56.048 20.5468 0.066906 0.355458 -1.209513
2008-09-10 07:14:25 51°13.623 2°56.048 20.5478 0.066906 0.355464 -1.209513
2008-09-10 07:14:30 51°13.623 2°56.048 20.5496 0.066906 0.35547 -1.209513
2008-09-10 07:14:35 51°13.623 2°56.048 20.5508 0.066906 0.35547 -1.209513
2008-09-10 07:14:40 51°13.623 2°56.048 20.5511 0.066906 0.355476 -1.209513
2008-09-10 07:14:45 51°13.623 2°56.048 20.5519 0.066906 0.355482 -1.209513
2008-09-10 07:14:50 51°13.623 2°56.048 20.5528 0.066906 0.355482 -1.209513
2008-09-10 07:14:55 51°13.623 2°56.048 20.5536 0.066906 0.355488 -1.209513
2008-09-10 07:15:00 51°13.623 2°56.048 20.5546 0.066906 0.355488 -1.209513
2008-09-10 07:15:06 51°13.623 2°56.048 20.5551 0.066906 0.355494 -1.209513
2008-09-10 07:15:11 51°13.623 2°56.048 20.5562 0.066906 0.3555 -1.209513
2008-09-10 07:15:15 51°13.623 2°56.048 20.5561 0.066906 0.355506 -1.209513
2008-09-10 07:15:20 51°13.623 2°56.048 20.5563 0.066906 0.355506 -1.209513
2008-09-10 07:15:25 51°13.623 2°56.048 20.558 0.066906 0.355512 -1.209513
2008-09-10 07:15:30 51°13.623 2°56.048 20.5601 0.066906 0.355512 -1.209513
2008-09-10 07:15:35 51°13.623 2°56.048 20.5615 0.066906 0.355518 -1.209513
2008-09-10 07:15:40 51°13.623 2°56.048 20.5621 0.066906 0.355518 -1.209513
2008-09-10 07:15:45 51°13.623 2°56.048 20.5628 0.066906 0.355524 -1.209513
2008-09-10 07:15:50 51°13.623 2°56.048 20.5607 0.066906 0.355524 -1.209513
2008-09-10 07:15:55 51°13.623 2°56.048 20.5587 0.066906 0.355531 -1.209513
2008-09-10 07:16:00 51°13.623 2°56.048 20.5567 0.066906 0.355531 -1.209513
2008-09-10 07:16:05 51°13.623 2°56.048 20.5568 0.066906 0.355537 -1.209513
2008-09-10 07:16:10 51°13.623 2°56.048 20.5573 0.066906 0.355543 -1.209513
2008-09-10 07:16:15 51°13.623 2°56.048 20.5608 0.066906 0.355543 -1.209513
2008-09-10 07:16:20 51°13.623 2°56.048 20.5623 0.066906 0.355543 -1.209513
2008-09-10 07:16:25 51°13.623 2°56.048 20.5644 0.066906 0.355549 -1.209513
2008-09-10 07:16:30 51°13.623 2°56.048 20.5654 0.066906 0.355555 -1.209513
2008-09-10 07:16:35 51°13.623 2°56.048 20.5663 0.066906 0.355561 -1.209513
2008-09-10 07:16:40 51°13.623 2°56.048 20.5676 0.066906 0.355561 -1.209513
2008-09-10 07:16:45 51°13.623 2°56.048 20.5682 0.066906 0.355567 -1.209513
2008-09-10 07:16:50 51°13.623 2°56.048 20.5689 0.066906 0.355567 -1.209513
2008-09-10 07:16:55 51°13.623 2°56.048 20.5694 0.066906 0.355573 -1.209513
2008-09-10 07:17:00 51°13.623 2°56.048 20.5681 0.066906 0.355573 -1.209513
2008-09-10 07:17:05 51°13.623 2°56.048 20.5671 0.066906 0.355573 -1.209513
2008-09-10 07:17:10 51°13.623 2°56.048 20.5662 0.066906 0.355579 -1.209513
2008-09-10 07:17:15 51°13.623 2°56.048 20.5667 0.066906 0.355585 -1.209513
2008-09-10 07:17:20 51°13.623 2°56.048 20.5682 0.066906 0.355585 -1.209513
2008-09-10 07:17:25 51°13.623 2°56.048 20.567 0.066906 0.355591 -1.209513
2008-09-10 07:17:30 51°13.623 2°56.048 20.5652 0.066906 0.355591 -1.209513
2008-09-10 07:17:35 51°13.623 2°56.048 20.5665 0.066906 0.355597 -1.209513
2008-09-10 07:17:40 51°13.623 2°56.048 20.5674 0.066906 0.355603 -1.209513
2008-09-10 07:17:45 51°13.623 2°56.048 20.5678 0.066906 0.355609 -1.209513
2008-09-10 07:17:51 51°13.623 2°56.048 20.5676 0.066906 0.355609 -1.209513
2008-09-10 07:17:55 51°13.623 2°56.048 20.5688 0.066906 0.355609 -1.209513
2008-09-10 07:18:00 51°13.623 2°56.048 20.5704 0.066906 0.355615 -1.209513
2008-09-10 07:18:05 51°13.623 2°56.048 20.571 0.066906 0.355615 -1.209513
2008-09-10 07:18:10 51°13.623 2°56.048 20.5722 0.066906 0.355621 -1.209513
2008-09-10 07:18:15 51°13.623 2°56.048 20.5726 0.066906 0.355627 -1.209513
2008-09-10 07:18:20 51°13.623 2°56.048 20.5744 0.066906 0.355627 -1.209513
2008-09-10 07:18:25 51°13.623 2°56.048 20.5763 0.066906 0.355633 -1.209513
2008-09-10 07:18:30 51°13.623 2°56.048 20.5772 0.066906 0.355633 -1.209513
2008-09-10 07:18:35 51°13.623 2°56.048 20.5786 0.066906 0.355639 -1.209513
2008-09-10 07:18:40 51°13.623 2°56.048 20.5804 0.066906 0.355639 -1.209513
2008-09-10 07:18:45 51°13.623 2°56.048 20.5797 0.066906 0.355645 -1.209513
2008-09-10 07:18:50 51°13.623 2°56.048 20.5807 0.066906 0.355645 -1.209513
2008-09-10 07:18:55 51°13.623 2°56.048 20.5798 0.066906 0.355652 -1.209513
2008-09-10 07:19:00 51°13.623 2°56.048 20.5819 0.066906 0.355652 -1.209513
2008-09-10 07:19:05 51°13.623 2°56.048 20.5824 0.066906 0.355658 -1.209513
2008-09-10 07:19:10 51°13.623 2°56.048 20.5848 0.066906 0.355664 -1.209513
2008-09-10 07:19:15 51°13.623 2°56.048 20.5848 0.066906 0.35567 -1.209513
2008-09-10 07:19:20 51°13.623 2°56.048 20.5856 0.066906 0.35567 -1.209513
2008-09-10 07:19:26 51°13.623 2°56.048 20.5854 0.066906 0.35567 -1.209513
2008-09-10 07:19:31 51°13.623 2°56.048 20.5875 0.066906 0.355676 -1.209513
2008-09-10 07:19:35 51°13.623 2°56.048 20.5871 0.066906 0.355682 -1.209513
2008-09-10 07:19:40 51°13.623 2°56.047 20.5918 0.066906 0.355682 -1.209513
2008-09-10 07:19:45 51°13.623 2°56.047 20.5937 0.066803 0.355124 -1.209513
2008-09-10 07:19:51 51°13.623 2°56.047 20.5952 0.066803 0.355124 -1.209513
2008-09-10 07:19:55 51°13.623 2°56.047 20.5985 0.066906 0.355688 -1.209513
2008-09-10 07:20:00 51°13.624 2°56.047 20.599 0.066803 0.35513 -1.209513
2008-09-10 07:20:05 51°13.624 2°56.047 20.5993 0.066803 0.35513 -1.209513
2008-09-10 07:20:10 51°13.624 2°56.047 20.5996 0.066803 0.355142 -1.209513
2008-09-10 07:20:15 51°13.624 2°56.047 20.6006 0.066803 0.355142 -1.209513
2008-09-10 07:20:20 51°13.624 2°56.047 20.6039 0.066803 0.355142 -1.209513
2008-09-10 07:20:25 51°13.624 2°56.046 20.6026 0.066803 0.355148 -1.209513
2008-09-10 07:20:30 51°13.624 2°56.046 20.6029 0.066803 0.355154 -1.209513
2008-09-10 07:20:35 51°13.624 2°56.046 20.6036 0.066803 0.355154 -1.209513
2008-09-10 07:20:40 51°13.624 2°56.046 20.6032 0.066803 0.35516 -1.209513
2008-09-10 07:20:45 51°13.624 2°56.046 20.6039 0.066803 0.355166 -1.209513
2008-09-10 07:20:50 51°13.624 2°56.046 20.6036 0.066803 0.355166 -1.209513
2008-09-10 07:20:55 51°13.624 2°56.046 20.6021 0.066803 0.355172 -1.209513
2008-09-10 07:21:00 51°13.624 2°56.046 20.6028 0.066803 0.355172 -1.209513
2008-09-10 07:21:05 51°13.624 2°56.046 20.6028 0.066803 0.355178 -1.209513
2008-09-10 07:21:10 51°13.625 2°56.046 20.6035 0.066803 0.355178 -1.209513
2008-09-10 07:21:15 51°13.625 2°56.045 20.604 0.066803 0.355184 -1.209513
2008-09-10 07:21:20 51°13.625 2°56.045 20.6033 0.066803 0.355184 -1.209513
2008-09-10 07:21:25 51°13.624 2°56.045 20.6064 0.066803 0.35519 -1.209513
2008-09-10 07:21:30 51°13.624 2°56.045 20.6089 0.066803 0.35519 -1.209513
2008-09-10 07:21:35 51°13.624 2°56.045 20.6106 0.066803 0.355196 -1.209513
2008-09-10 07:21:40 51°13.624 2°56.045 20.6116 0.066803 0.355203 -1.209513
2008-09-10 07:21:45 51°13.624 2°56.045 20.6119 0.066803 0.355203 -1.209513
2008-09-10 07:21:50 51°13.624 2°56.045 20.6104 0.066803 0.355203 -1.209513
2008-09-10 07:21:55 51°13.624 2°56.045 20.604 0.066803 0.355203 -1.209513
2008-09-10 07:22:00 51°13.624 2°56.045 20.6181 0.066803 0.355209 -1.209513
2008-09-10 07:22:05 51°13.624 2°56.045 20.6207 0.066803 0.355215 -1.209513
2008-09-10 07:22:10 51°13.624 2°56.044 20.6209 0.066803 0.355215 -1.209513
2008-09-10 07:22:15 51°13.624 2°56.044 20.6179 0.066803 0.355221 -1.209513
2008-09-10 07:22:20 51°13.624 2°56.044 20.6201 0.066803 0.355221 -1.209513
2008-09-10 07:22:25 51°13.624 2°56.044 20.6202 0.066803 0.355227 -1.209513
2008-09-10 07:22:30 51°13.624 2°56.044 20.6215 0.066803 0.355233 -1.209513
2008-09-10 07:22:35 51°13.624 2°56.044 20.6204 0.066803 0.355239 -1.209513
2008-09-10 07:22:40 51°13.624 2°56.044 20.6203 0.066803 0.355239 -1.209513
2008-09-10 07:22:45 51°13.624 2°56.044 20.6185 0.066803 0.355245 -1.209513
2008-09-10 07:22:50 51°13.624 2°56.044 20.6205 0.066803 0.355245 -1.209513
2008-09-10 07:22:55 51°13.624 2°56.043 20.6219 0.066803 0.355251 -1.209513
2008-09-10 07:23:00 51°13.624 2°56.043 20.6229 0.066803 0.355251 -1.209513
2008-09-10 07:23:05 51°13.623 2°56.043 20.6239 0.066803 0.355257 -1.209513
2008-09-10 07:23:10 51°13.623 2°56.043 20.6238 0.066803 0.355257 -1.209513
2008-09-10 07:23:15 51°13.623 2°56.043 20.6342 0.066803 0.355263 -1.209513
2008-09-10 07:23:20 51°13.623 2°56.043 20.6469 0.066803 0.355263 -1.209513
2008-09-10 07:23:25 51°13.623 2°56.043 20.633 0.066803 0.355269 -1.209513
2008-09-10 07:23:30 51°13.623 2°56.042 20.6271 0.066803 0.355269 -1.209513
2008-09-10 07:23:35 51°13.623 2°56.042 20.6284 0.066803 0.355275 -1.209513
2008-09-10 07:23:40 51°13.623 2°56.042 20.6259 0.066803 0.355275 -1.209513
2008-09-10 07:23:45 51°13.623 2°56.042 20.6307 0.066803 0.355281 -1.209513
2008-09-10 07:23:50 51°13.623 2°56.042 20.6404 0.066803 0.355281 -1.209513
2008-09-10 07:23:55 51°13.623 2°56.042 20.6409 0.066803 0.355287 -1.209513
2008-09-10 07:24:00 51°13.623 2°56.041 20.6351 0.066803 0.355293 -1.209513
2008-09-10 07:24:06 51°13.623 2°56.041 20.63 0.066803 0.355293 -1.209513
2008-09-10 07:24:10 51°13.623 2°56.041 20.6306 0.066803 0.355299 -1.209513
2008-09-10 07:24:15 51°13.623 2°56.041 20.6365 0.066803 0.355299 -1.209513
2008-09-10 07:24:20 51°13.622 2°56.041 20.6318 0.066803 0.355299 -1.209513
2008-09-10 07:24:25 51°13.622 2°56.041 20.6377 0.066803 0.355305 -1.209513
2008-09-10 07:24:31 51°13.622 2°56.041 20.6396 0.066803 0.355311 -1.209513
2008-09-10 07:24:35 51°13.621 2°56.042 20.6638 0.066803 0.355311 -1.209513
2008-09-10 07:24:40 51°13.62 2°56.043 20.6674 0.066803 0.355317 -1.209513
2008-09-10 07:24:45 51°13.619 2°56.044 20.6905 0.066803 0.355323 -1.209513
2008-09-10 07:24:51 51°13.617 2°56.047 20.6869 0.066803 0.355323 -1.209513
2008-09-10 07:24:55 51°13.614 2°56.05 20.6995 0.066803 0.355323 -1.209513
2008-09-10 07:25:00 51°13.611 2°56.054 20.6815 0.066803 0.35533 -1.209513
2008-09-10 07:25:05 51°13.608 2°56.059 20.6731 0.066803 0.35533 -1.209513
2008-09-10 07:25:10 51°13.604 2°56.064 20.6351 0.066803 0.355336 -1.209513
2008-09-10 07:25:15 51°13.601 2°56.069 20.6416 0.066803 0.355336 -1.209513
2008-09-10 07:25:20 51°13.597 2°56.075 20.6457 0.066803 0.355336 -1.209513
2008-09-10 07:25:25 51°13.593 2°56.081 20.6466 0.066803 0.355342 -1.209513
2008-09-10 07:25:30 51°13.589 2°56.087 20.6469 0.066803 0.355348 -1.209513
2008-09-10 07:25:35 51°13.584 2°56.093 20.647 0.066803 0.355348 -1.209513
2008-09-10 07:25:40 51°13.58 2°56.099 20.6472 0.066803 0.355354 -1.209513
2008-09-10 07:25:45 51°13.576 2°56.106 20.6462 0.066803 0.35536 -1.209513
2008-09-10 07:25:50 51°13.572 2°56.112 20.6451 0.066803 0.35536 -1.209513
2008-09-10 07:25:55 51°13.568 2°56.119 20.6416 0.066803 0.355366 -1.209513
2008-09-10 07:26:00 51°13.563 2°56.125 20.6416 0.066803 0.355366 -1.209513
2008-09-10 07:26:05 51°13.559 2°56.132 20.6409 0.066803 0.355372 -1.209513
2008-09-10 07:26:10 51°13.556 2°56.139 20.6807 0.066803 0.355378 -1.209513
2008-09-10 07:26:15 51°13.553 2°56.147 20.6817 0.066803 0.355384 -1.209513
2008-09-10 07:26:20 51°13.55 2°56.154 20.7068 0.066803 0.355384 -1.209513
2008-09-10 07:26:26 51°13.548 2°56.164 20.7059 0.066803 0.35539 -1.209513
2008-09-10 07:26:31 51°13.546 2°56.173 20.6778 0.066803 0.355396 -1.209513
2008-09-10 07:26:35 51°13.545 2°56.18 20.657 0.066803 0.355402 -1.209513
2008-09-10 07:26:40 51°13.544 2°56.189 20.6514 0.066803 0.355402 -1.209513
2008-09-10 07:26:45 51°13.543 2°56.198 20.6794 0.066803 0.355402 -1.209513
2008-09-10 07:26:51 51°13.543 2°56.208 20.6848 0.066803 0.355402 -1.209513
2008-09-10 07:26:55 51°13.543 2°56.214 20.6854 0.066803 0.355414 -1.209513
2008-09-10 07:27:00 51°13.544 2°56.222 20.6614 0.066803 0.355414 -1.209513
2008-09-10 07:27:05 51°13.545 2°56.229 20.6388 0.066803 0.35542 -1.209513
2008-09-10 07:27:10 51°13.547 2°56.236 20.602 0.066803 0.355426 -1.209513
2008-09-10 07:27:15 51°13.548 2°56.241 20.5381 0.066803 0.355426 -1.209513
2008-09-10 07:27:20 51°13.549 2°56.245 20.5745 0.066803 0.355426 -1.209513
2008-09-10 07:27:25 51°13.55 2°56.247 20.6453 0.066803 0.355426 -1.209513
2008-09-10 07:27:30 51°13.55 2°56.249 20.6263 0.066803 0.355426 -1.209513
2008-09-10 07:27:35 51°13.55 2°56.249 20.5635 0.066803 0.355426 -1.209513
2008-09-10 07:27:40 51°13.55 2°56.249 20.5744 0.066803 0.355426 -1.209513
2008-09-10 07:27:45 51°13.549 2°56.248 20.6256 0.066803 0.355426 -1.209513
2008-09-10 07:27:50 51°13.548 2°56.246 20.6506 0.066803 0.355426 -1.209513
2008-09-10 07:27:55 51°13.548 2°56.245 20.6383 0.066803 0.355426 -1.209513
2008-09-10 07:28:01 51°13.547 2°56.243 20.6389 0.066803 0.355426 -1.209513
2008-09-10 07:28:05 51°13.546 2°56.242 20.6386 0.066803 0.355432 -1.209513
2008-09-10 07:28:10 51°13.546 2°56.242 20.6585 0.066803 0.355432 -1.209513
2008-09-10 07:28:15 51°13.547 2°56.242 20.6781 0.066803 0.355439 -1.209513
2008-09-10 07:28:21 51°13.548 2°56.244 20.669 0.066803 0.355439 -1.209513
2008-09-10 07:28:26 51°13.549 2°56.246 20.6548 0.066803 0.355439 -1.209513
2008-09-10 07:28:30 51°13.55 2°56.247 20.5964 0.066803 0.355445 -1.209513
2008-09-10 07:28:35 51°13.551 2°56.247 20.5986 0.066803 0.355451 -1.209513
2008-09-10 07:28:40 51°13.551 2°56.248 20.6211 0.066803 0.355457 -1.209513
2008-09-10 07:28:45 51°13.551 2°56.248 20.6334 0.066803 0.355463 -1.209513
2008-09-10 07:28:51 51°13.549 2°56.247 20.6121 0.066803 0.355463 -1.209513
2008-09-10 07:28:55 51°13.548 2°56.246 20.6152 0.066803 0.355469 -1.209513
2008-09-10 07:29:00 51°13.545 2°56.245 20.6482 0.066803 0.355469 -1.209513
2008-09-10 07:29:05 51°13.543 2°56.244 20.6555 0.066803 0.355469 -1.209513
2008-09-10 07:29:11 51°13.541 2°56.244 20.6646 0.066803 0.355469 -1.209513
2008-09-10 07:29:15 51°13.539 2°56.243 20.6635 0.066803 0.355469 -1.209513
2008-09-10 07:29:20 51°13.538 2°56.243 20.6749 0.066803 0.355469 -1.209513
2008-09-10 07:29:25 51°13.537 2°56.243 20.6884 0.066803 0.355475 -1.209513
2008-09-10 07:29:30 51°13.538 2°56.243 20.7085 0.066803 0.355481 -1.209513
2008-09-10 07:29:36 51°13.54 2°56.243 20.6872 0.066803 0.355529 -1.209513
2008-09-10 07:29:41 51°13.542 2°56.244 20.6707 0.066803 0.355578 -1.209513
2008-09-10 07:29:45 51°13.544 2°56.243 20.5671 0.066803 0.355614 -1.209513
2008-09-10 07:29:50 51°13.545 2°56.243 20.5901 0.066803 0.355614 -1.209513
2008-09-10 07:29:56 51°13.546 2°56.243 20.5995 0.066803 0.35562 -1.209513
2008-09-10 07:30:01 51°13.546 2°56.244 20.6454 0.066803 0.355608 -1.209513
2008-09-10 07:30:06 51°13.545 2°56.245 20.6377 0.066803 0.355584 -1.209513
2008-09-10 07:30:10 51°13.544 2°56.246 20.6455 0.066803 0.355548 -1.209513
2008-09-10 07:30:15 51°13.542 2°56.247 20.6482 0.066803 0.355505 -1.209513
2008-09-10 07:30:20 51°13.541 2°56.25 20.6473 0.066803 0.355505 -1.209513
2008-09-10 07:30:26 51°13.538 2°56.252 20.6543 0.066803 0.355475 -1.209513
2008-09-10 07:30:30 51°13.536 2°56.254 20.6513 0.066803 0.355457 -1.209513
2008-09-10 07:30:35 51°13.534 2°56.256 20.6432 0.066803 0.355457 -1.209513
2008-09-10 07:30:40 51°13.532 2°56.258 20.6321 0.066803 0.355469 -1.209513
2008-09-10 07:30:46 51°13.529 2°56.261 20.6585 0.066803 0.355493 -1.209513
2008-09-10 07:30:50 51°13.527 2°56.262 20.666 0.066803 0.355493 -1.209513
2008-09-10 07:30:55 51°13.525 2°56.265 20.6786 0.066803 0.355523 -1.209513
2008-09-10 07:31:00 51°13.523 2°56.266 20.6944 0.066803 0.355554 -1.209513
2008-09-10 07:31:05 51°13.522 2°56.267 20.7165 0.066803 0.355578 -1.209513
2008-09-10 07:31:11 51°13.523 2°56.266 20.7269 0.066803 0.355596 -1.209513
2008-09-10 07:31:15 51°13.524 2°56.265 20.7281 0.066803 0.355596 -1.209513
2008-09-10 07:31:20 51°13.526 2°56.262 20.7308 0.066803 0.355596 -1.209513
2008-09-10 07:31:25 51°13.529 2°56.258 20.7196 0.066803 0.355596 -1.209513
2008-09-10 07:31:30 51°13.531 2°56.252 20.7135 0.066803 0.355596 -1.209513
2008-09-10 07:31:35 51°13.533 2°56.247 20.6881 0.066803 0.35559 -1.209513
2008-09-10 07:31:40 51°13.535 2°56.24 20.6828 0.066803 0.355578 -1.209513
2008-09-10 07:31:45 51°13.537 2°56.234 20.6805 0.066803 0.355578 -1.209513
2008-09-10 07:31:50 51°13.539 2°56.227 20.6756 0.066803 0.355578 -1.209513
2008-09-10 07:31:55 51°13.542 2°56.22 20.6667 0.066803 0.355578 -1.209513
2008-09-10 07:32:00 51°13.544 2°56.213 20.6518 0.066803 0.355584 -1.209513
2008-09-10 07:32:05 51°13.547 2°56.205 20.6485 0.066803 0.355584 -1.209513
2008-09-10 07:32:10 51°13.549 2°56.197 20.6421 0.066803 0.35559 -1.209513
2008-09-10 07:32:15 51°13.551 2°56.188 20.6421 0.066803 0.355596 -1.209513
2008-09-10 07:32:20 51°13.554 2°56.179 20.6361 0.066803 0.355596 -1.209513
2008-09-10 07:32:25 51°13.556 2°56.17 20.6411 0.066803 0.355602 -1.209513
2008-09-10 07:32:30 51°13.559 2°56.161 20.6409 0.066803 0.355608 -1.209513
2008-09-10 07:32:35 51°13.561 2°56.152 20.6439 0.066803 0.355614 -1.209513
2008-09-10 07:32:40 51°13.564 2°56.142 20.636 0.066803 0.355614 -1.209513
2008-09-10 07:32:46 51°13.567 2°56.13 20.6384 0.066803 0.35562 -1.209513
2008-09-10 07:32:50 51°13.569 2°56.123 20.6361 0.066803 0.35562 -1.209513
2008-09-10 07:32:55 51°13.572 2°56.113 20.6359 0.066803 0.35562 -1.209513
2008-09-10 07:33:00 51°13.574 2°56.103 20.6323 0.066803 0.355626 -1.209513
2008-09-10 07:33:05 51°13.577 2°56.093 20.625 0.066803 0.355626 -1.209513
2008-09-10 07:33:10 51°13.58 2°56.083 20.6189 0.066803 0.355626 -1.209513
2008-09-10 07:33:15 51°13.583 2°56.073 20.6222 0.066803 0.355626 -1.209513
2008-09-10 07:33:20 51°13.586 2°56.063 20.637 0.066803 0.355626 -1.209513
2008-09-10 07:33:25 51°13.589 2°56.053 20.6409 0.066803 0.355632 -1.209513
2008-09-10 07:33:31 51°13.593 2°56.041 20.6403 0.066803 0.355632 -1.209513
2008-09-10 07:33:35 51°13.596 2°56.033 20.6439 0.066803 0.355639 -1.209513
2008-09-10 07:33:40 51°13.599 2°56.023 20.6463 0.066803 0.355639 -1.209513
2008-09-10 07:33:45 51°13.602 2°56.013 20.6472 0.066803 0.355645 -1.209513
2008-09-10 07:33:51 51°13.606 2°56.002 20.6468 0.066803 0.355645 -1.209513
2008-09-10 07:33:55 51°13.609 2°55.994 20.6476 0.066803 0.355645 -1.209513
2008-09-10 07:34:00 51°13.613 2°55.984 20.649 0.066803 0.355657 -1.209513
2008-09-10 07:34:05 51°13.616 2°55.974 20.6484 0.066803 0.355663 -1.209513
2008-09-10 07:34:10 51°13.62 2°55.964 20.6481 0.066803 0.355669 -1.209513
2008-09-10 07:34:15 51°13.623 2°55.954 20.6483 0.066803 0.355669 -1.209513
2008-09-10 07:34:20 51°13.627 2°55.945 20.6464 0.066803 0.355669 -1.209513
2008-09-10 07:34:25 51°13.631 2°55.935 20.6425 0.066803 0.355675 -1.209513
2008-09-10 07:34:30 51°13.635 2°55.925 20.6478 0.066803 0.355675 -1.209513
2008-09-10 07:34:35 51°13.639 2°55.916 20.6517 0.066803 0.355669 -1.209513
2008-09-10 07:34:40 51°13.643 2°55.906 20.6557 0.066803 0.355675 -1.209513
2008-09-10 07:34:45 51°13.647 2°55.896 20.6581 0.066803 0.355675 -1.209513
2008-09-10 07:34:50 51°13.651 2°55.886 20.6663 0.066803 0.355675 -1.209513
2008-09-10 07:34:55 51°13.655 2°55.876 20.6893 0.066803 0.355681 -1.209513
2008-09-10 07:35:00 51°13.66 2°55.865 20.7014 0.066803 0.355687 -1.209513
2008-09-10 07:35:05 51°13.665 2°55.854 20.688 0.066803 0.355687 -1.209513
2008-09-10 07:35:11 51°13.671 2°55.839 20.6841 0.066803 0.355693 -1.209513
2008-09-10 07:35:15 51°13.675 2°55.829 20.6811 0.066803 0.355699 -1.209513
2008-09-10 07:35:20 51°13.68 2°55.816 20.6731 0.066803 0.355699 -1.209513
2008-09-10 07:35:26 51°13.687 2°55.801 20.6661 0.066803 0.355705 -1.209513
2008-09-10 07:35:31 51°13.694 2°55.787 20.6427 0.066803 0.355711 -1.209513
2008-09-10 07:35:35 51°13.699 2°55.777 20.6405 0.0667 0.355146 -1.209513
2008-09-10 07:35:40 51°13.706 2°55.763 20.6316 0.066803 0.355711 -1.209513
2008-09-10 07:35:46 51°13.714 2°55.747 20.6246 0.0667 0.355153 -1.209513
2008-09-10 07:35:51 51°13.722 2°55.734 20.6333 0.0667 0.355153 -1.209513
2008-09-10 07:35:55 51°13.728 2°55.724 20.6256 0.066803 0.355717 -1.209513
2008-09-10 07:36:00 51°13.736 2°55.71 20.6119 0.066803 0.355717 -1.209513
2008-09-10 07:36:05 51°13.744 2°55.698 20.6123 0.0667 0.355159 -1.209513
2008-09-10 07:36:11 51°13.754 2°55.684 20.5882 0.0667 0.355159 -1.209513
2008-09-10 07:36:15 51°13.762 2°55.675 20.5709 0.0667 0.355159 -1.209513
2008-09-10 07:36:20 51°13.771 2°55.664 20.5618 0.0667 0.355159 -1.209513
2008-09-10 07:36:25 51°13.781 2°55.655 20.5569 0.0667 0.355165 -1.209513
2008-09-10 07:36:30 51°13.791 2°55.646 20.567 0.0667 0.355171 -1.209513
2008-09-10 07:36:35 51°13.802 2°55.639 20.6357 0.0667 0.355171 -1.209513
2008-09-10 07:36:40 51°13.812 2°55.631 20.6435 0.0667 0.355177 -1.209513
2008-09-10 07:36:45 51°13.823 2°55.624 20.6418 0.0667 0.355183 -1.209513
2008-09-10 07:36:50 51°13.834 2°55.617 20.663 0.0667 0.355183 -1.209513
2008-09-10 07:36:55 51°13.845 2°55.61 20.6925 0.0667 0.355189 -1.209513
2008-09-10 07:37:00 51°13.855 2°55.603 20.7003 0.0667 0.355189 -1.209513
2008-09-10 07:37:05 51°13.866 2°55.596 20.6986 0.0667 0.355189 -1.209513
2008-09-10 07:37:10 51°13.877 2°55.589 20.6682 0.0667 0.355189 -1.209513
2008-09-10 07:37:15 51°13.888 2°55.582 20.6725 0.0667 0.355189 -1.209513
2008-09-10 07:37:20 51°13.899 2°55.575 20.6851 0.0667 0.355195 -1.209513
2008-09-10 07:37:26 51°13.912 2°55.566 20.7 0.0667 0.355195 -1.209513
2008-09-10 07:37:30 51°13.921 2°55.56 20.6978 0.0667 0.355201 -1.209513
2008-09-10 07:37:35 51°13.932 2°55.553 20.6761 0.0667 0.355207 -1.209513
2008-09-10 07:37:40 51°13.943 2°55.546 20.6855 0.0667 0.355201 -1.209513
2008-09-10 07:37:46 51°13.956 2°55.537 20.6962 0.0667 0.355213 -1.209513
2008-09-10 07:37:50 51°13.965 2°55.532 20.6989 0.0667 0.355213 -1.209513
2008-09-10 07:37:55 51°13.976 2°55.524 20.6687 0.0667 0.355213 -1.209513
2008-09-10 07:38:00 51°13.987 2°55.515 20.6391 0.0667 0.355219 -1.209513
2008-09-10 07:38:05 51°13.998 2°55.507 20.6898 0.0667 0.355219 -1.209513
2008-09-10 07:38:10 51°14.009 2°55.499 20.6622 0.0667 0.355225 -1.209513
2008-09-10 07:38:15 51°14.02 2°55.491 20.6586 0.0667 0.355225 -1.209513
2008-09-10 07:38:20 51°14.031 2°55.484 20.6708 0.0667 0.355225 -1.209513
2008-09-10 07:38:25 51°14.042 2°55.476 20.6764 0.0667 0.355225 -1.209513
2008-09-10 07:38:30 51°14.053 2°55.469 20.7138 0.0667 0.355231 -1.209513
2008-09-10 07:38:35 51°14.064 2°55.46 20.697 0.0667 0.355237 -1.209513
2008-09-10 07:38:40 51°14.075 2°55.453 20.6839 0.0667 0.355237 -1.209513
2008-09-10 07:38:45 51°14.085 2°55.444 20.6502 0.0667 0.355237 -1.209513
2008-09-10 07:38:50 51°14.096 2°55.437 20.7164 0.0667 0.355237 -1.209513
2008-09-10 07:38:55 51°14.107 2°55.429 20.7157 0.0667 0.355237 -1.209513
2008-09-10 07:39:00 51°14.118 2°55.42 20.7164 0.0667 0.355243 -1.209513
2008-09-10 07:39:05 51°14.128 2°55.412 20.7111 0.0667 0.355243 -1.209513
2008-09-10 07:39:10 51°14.139 2°55.403 20.7152 0.0667 0.355249 -1.209513
2008-09-10 07:39:15 51°14.149 2°55.393 20.7226 0.0667 0.355249 -1.209513
2008-09-10 07:39:20 51°14.159 2°55.383 20.7157 0.0667 0.355249 -1.209513
2008-09-10 07:39:25 51°14.169 2°55.373 20.7061 0.0667 0.355256 -1.209513
2008-09-10 07:39:30 51°14.179 2°55.363 20.7084 0.0667 0.355256 -1.209513
2008-09-10 07:39:35 51°14.189 2°55.353 20.7224 0.0667 0.355262 -1.209513
2008-09-10 07:39:40 51°14.199 2°55.342 20.71 0.0667 0.355262 -1.209513
2008-09-10 07:39:45 51°14.209 2°55.331 20.7096 0.0667 0.355262 -1.209513
2008-09-10 07:39:50 51°14.218 2°55.32 20.7326 0.0667 0.355262 -1.209513
2008-09-10 07:39:55 51°14.227 2°55.308 20.7119 0.0667 0.355268 -1.209513
2008-09-10 07:40:00 51°14.236 2°55.295 20.7362 0.0667 0.355274 -1.209513
2008-09-10 07:40:06 51°14.247 2°55.28 20.7317 0.0667 0.355274 -1.209513
2008-09-10 07:40:11 51°14.255 2°55.267 20.7287 0.0667 0.35528 -1.209513
2008-09-10 07:40:15 51°14.262 2°55.256 20.692 0.0667 0.35528 -1.209513
2008-09-10 07:40:20 51°14.27 2°55.243 20.707 0.0667 0.35528 -1.209513
2008-09-10 07:40:25 51°14.278 2°55.229 20.7169 0.0667 0.35528 -1.209513
2008-09-10 07:40:31 51°14.288 2°55.213 20.7075 0.0667 0.355286 -1.209513
2008-09-10 07:40:35 51°14.294 2°55.202 20.7108 0.0667 0.355286 -1.209513
2008-09-10 07:40:40 51°14.302 2°55.188 20.7299 0.0667 0.355292 -1.209513
2008-09-10 07:40:45 51°14.31 2°55.173 20.709 0.0667 0.355292 -1.209513
2008-09-10 07:40:51 51°14.319 2°55.156 20.7362 0.0667 0.355298 -1.209513
2008-09-10 07:40:55 51°14.324 2°55.144 20.7379 0.0667 0.355298 -1.209513
2008-09-10 07:41:00 51°14.331 2°55.129 20.7436 0.0667 0.355298 -1.209513
2008-09-10 07:41:05 51°14.338 2°55.114 20.7425 0.0667 0.355304 -1.209513
2008-09-10 07:41:10 51°14.345 2°55.098 20.7245 0.0667 0.35531 -1.209513
2008-09-10 07:41:15 51°14.352 2°55.083 20.7161 0.0667 0.355304 -1.209513
2008-09-10 07:41:20 51°14.358 2°55.067 20.7221 0.0667 0.355304 -1.209513
2008-09-10 07:41:25 51°14.365 2°55.051 20.6969 0.0667 0.35531 -1.209513
2008-09-10 07:41:30 51°14.372 2°55.036 20.7025 0.0667 0.35531 -1.209513
2008-09-10 07:41:35 51°14.379 2°55.021 20.6761 0.0667 0.35531 -1.209513
2008-09-10 07:41:40 51°14.386 2°55.006 20.72 0.0667 0.35531 -1.209513
2008-09-10 07:41:46 51°14.395 2°54.989 20.7241 0.0667 0.355316 -1.209513
2008-09-10 07:41:50 51°14.401 2°54.978 20.7162 0.0667 0.355316 -1.209513
2008-09-10 07:41:55 51°14.409 2°54.963 20.7344 0.0667 0.355316 -1.209513
2008-09-10 07:42:00 51°14.416 2°54.949 20.7359 0.0667 0.355328 -1.209513
2008-09-10 07:42:06 51°14.424 2°54.932 20.7263 0.0667 0.355328 -1.209513
2008-09-10 07:42:10 51°14.43 2°54.92 20.7162 0.0667 0.355328 -1.209513
2008-09-10 07:42:15 51°14.437 2°54.906 20.7246 0.0667 0.355328 -1.209513
2008-09-10 07:42:20 51°14.444 2°54.891 20.7215 0.0667 0.355328 -1.209513
2008-09-10 07:42:25 51°14.451 2°54.877 20.7204 0.0667 0.355334 -1.209513
2008-09-10 07:42:30 51°14.458 2°54.863 20.7358 0.0667 0.35534 -1.209513
2008-09-10 07:42:35 51°14.465 2°54.848 20.7538 0.0667 0.35534 -1.209513
2008-09-10 07:42:40 51°14.471 2°54.833 20.7229 0.0667 0.355347 -1.209513
2008-09-10 07:42:45 51°14.478 2°54.819 20.7121 0.0667 0.355347 -1.209513
2008-09-10 07:42:51 51°14.486 2°54.801 20.7249 0.0667 0.355347 -1.209513
2008-09-10 07:42:55 51°14.492 2°54.79 20.7445 0.0667 0.355347 -1.209513
2008-09-10 07:43:00 51°14.499 2°54.776 20.7065 0.0667 0.355353 -1.209513
2008-09-10 07:43:05 51°14.506 2°54.762 20.7324 0.0667 0.355353 -1.209513
2008-09-10 07:43:10 51°14.514 2°54.749 20.7465 0.0667 0.355353 -1.209513
2008-09-10 07:43:15 51°14.521 2°54.735 20.7489 0.0667 0.355365 -1.209513
2008-09-10 07:43:20 51°14.529 2°54.721 20.7394 0.0667 0.355365 -1.209513
2008-09-10 07:43:25 51°14.536 2°54.707 20.7498 0.0667 0.355365 -1.209513
2008-09-10 07:43:30 51°14.543 2°54.693 20.7157 0.0667 0.355371 -1.209513
2008-09-10 07:43:35 51°14.55 2°54.679 20.7355 0.0667 0.355371 -1.209513
2008-09-10 07:43:40 51°14.558 2°54.666 20.7302 0.0667 0.355371 -1.209513
2008-09-10 07:43:45 51°14.565 2°54.652 20.7434 0.0667 0.355377 -1.209513
2008-09-10 07:43:50 51°14.572 2°54.638 20.7278 0.0667 0.355377 -1.209513
2008-09-10 07:43:55 51°14.58 2°54.624 20.7055 0.0667 0.355377 -1.209513
2008-09-10 07:44:00 51°14.587 2°54.61 20.7388 0.0667 0.355377 -1.209513
2008-09-10 07:44:05 51°14.594 2°54.596 20.7468 0.0667 0.355383 -1.209513
2008-09-10 07:44:10 51°14.601 2°54.582 20.7398 0.0667 0.355389 -1.209513
2008-09-10 07:44:15 51°14.608 2°54.568 20.7256 0.0667 0.355389 -1.209513
2008-09-10 07:44:20 51°14.615 2°54.554 20.7002 0.0667 0.355389 -1.209513
2008-09-10 07:44:26 51°14.623 2°54.536 20.7191 0.0667 0.355389 -1.209513
2008-09-10 07:44:31 51°14.63 2°54.522 20.7505 0.0667 0.355389 -1.209513
2008-09-10 07:44:35 51°14.636 2°54.511 20.7548 0.0667 0.355395 -1.209513